| time (UTC) | temp F | wind direction | speed MPH | gust MPH | rain 1hr in | rain 24hr in | rain mn in | humidity % | barometer mb |
| 20260903153852 | 81 | 26 | 0.0 | 2.0 | 0.00 | 0.32 | 0.00 | 85 | 1016.7 |
| 20260903153749 | 81 | 26 | 0.0 | 2.0 | 0.00 | 0.32 | 0.00 | 85 | 1016.7 |
| 20260903153426 | 81 | 34 | 0.0 | 2.0 | 0.00 | 0.32 | 0.00 | 86 | 1016.8 |
| 20260903153318 | 81 | 34 | 0.0 | 2.0 | 0.00 | 0.32 | 0.00 | 86 | 1016.8 |
| 20260903153214 | 81 | 243 | 0.0 | 2.0 | 0.00 | 0.32 | 0.00 | 87 | 1016.9 |
| 20260903152629 | 80 | 145 | 0.0 | 2.0 | 0.00 | 0.32 | 0.00 | 88 | 1016.7 |
| 20260903152522 | 80 | 146 | 0.0 | 2.0 | 0.00 | 0.32 | 0.00 | 88 | 1016.8 |
| 20260903152421 | 80 | 194 | 0.0 | 2.0 | 0.00 | 0.32 | 0.00 | 88 | 1016.7 |
| 20260903152316 | 80 | 10 | 0.0 | 1.0 | 0.00 | 0.32 | 0.00 | 87 | 1016.8 |
| 20260903152210 | 80 | 10 | 0.0 | 1.0 | 0.00 | 0.32 | 0.00 | 87 | 1016.8 |
| 20260903152104 | 80 | 10 | 0.0 | 1.0 | 0.00 | 0.32 | 0.00 | 87 | 1016.8 |
| 20260903152000 | 80 | 10 | 0.0 | 1.0 | 0.00 | 0.32 | 0.00 | 88 | 1016.7 |
| 20260903151857 | 79 | 19 | 0.0 | 1.0 | 0.00 | 0.32 | 0.00 | 89 | 1016.8 |
| 20260903151752 | 80 | 251 | 0.0 | 1.0 | 0.00 | 0.32 | 0.00 | 89 | 1016.8 |
| 20260903151649 | 79 | 269 | 0.0 | 1.0 | 0.00 | 0.32 | 0.00 | 88 | 1016.7 |
| 20260903151542 | 79 | 121 | 0.0 | 1.0 | 0.00 | 0.32 | 0.00 | 89 | 1016.7 |
| 20260903151437 | 79 | 117 | 0.0 | 1.0 | 0.00 | 0.32 | 0.00 | 89 | 1016.8 |
| 20260903151331 | 79 | 325 | 0.0 | 1.0 | 0.00 | 0.32 | 0.00 | 90 | 1016.8 |
| 20260903151010 | 79 | 325 | 0.0 | 1.0 | 0.00 | 0.32 | 0.00 | 90 | 1016.8 |
| 20260903150904 | 79 | 325 | 0.0 | 1.0 | 0.00 | 0.32 | 0.00 | 90 | 1016.8 |
| 20260903150536 | 79 | 325 | 0.0 | 1.0 | 0.00 | 0.32 | 0.00 | 89 | 1016.8 |
| 20260903150430 | 79 | 325 | 0.0 | 1.0 | 0.00 | 0.32 | 0.00 | 89 | 1016.9 |
| 20260903150327 | 79 | 325 | 0.0 | 1.0 | 0.00 | 0.32 | 0.00 | 89 | 1016.8 |
| 20260903150222 | 79 | 27 | 0.0 | 1.0 | 0.00 | 0.32 | 0.00 | 89 | 1016.8 |
| 20260903150114 | 79 | 355 | 0.0 | 1.0 | 0.00 | 0.32 | 0.00 | 89 | 1016.8 |
| 20260903150007 | 79 | 355 | 0.0 | 1.0 | 0.00 | 0.32 | 0.00 | 90 | 1016.7 |
| 20260903145906 | 79 | 179 | 0.0 | 1.0 | 0.00 | 0.32 | 0.00 | 89 | 1016.7 |
| 20260903145803 | 79 | 186 | 0.0 | 1.0 | 0.00 | 0.32 | 0.00 | 89 | 1016.7 |
| 20260903145658 | 79 | 209 | 0.0 | 1.0 | 0.00 | 0.32 | 0.00 | 91 | 1016.7 |
| 20260903145336 | 78 | 306 | 0.0 | 0.0 | 0.00 | 0.32 | 0.00 | 91 | 1016.8 |
| 20260903145230 | 78 | 180 | 0.0 | 0.0 | 0.00 | 0.32 | 0.00 | 91 | 1016.7 |
| 20260903145125 | 78 | 180 | 0.0 | 2.0 | 0.00 | 0.32 | 0.00 | 92 | 1016.8 |
| 20260903145018 | 78 | 180 | 0.0 | 2.0 | 0.00 | 0.32 | 0.00 | 92 | 1016.8 |
| 20260903144914 | 78 | 127 | 0.0 | 2.0 | 0.00 | 0.32 | 0.00 | 93 | 1016.8 |
| 20260903144809 | 77 | 127 | 0.0 | 2.0 | 0.00 | 0.32 | 0.00 | 93 | 1016.8 |
| 20260903144703 | 77 | 127 | 0.0 | 2.0 | 0.00 | 0.32 | 0.00 | 93 | 1016.9 |
| 20260903144337 | 77 | 5 | 0.0 | 2.0 | 0.00 | 0.32 | 0.00 | 94 | 1016.9 |
| 20260903144235 | 77 | 5 | 0.0 | 2.0 | 0.00 | 0.32 | 0.00 | 94 | 1016.9 |
| 20260903144129 | 76 | 227 | 0.0 | 2.0 | 0.00 | 0.32 | 0.00 | 94 | 1016.9 |
| 20260903144022 | 76 | 227 | 0.0 | 2.0 | 0.00 | 0.32 | 0.00 | 95 | 1016.9 |
| 20260903143916 | 76 | 227 | 0.0 | 2.0 | 0.00 | 0.32 | 0.00 | 95 | 1016.9 |
| 20260903143814 | 76 | 227 | 0.0 | 2.0 | 0.00 | 0.32 | 0.00 | 96 | 1016.9 |
| 20260903143711 | 76 | 94 | 0.0 | 1.0 | 0.00 | 0.32 | 0.00 | 96 | 1016.8 |
| 20260903143348 | 76 | 45 | 0.0 | 1.0 | 0.00 | 0.32 | 0.00 | 96 | 1016.7 |
| 20260903143243 | 76 | 82 | 0.0 | 0.0 | 0.00 | 0.32 | 0.00 | 96 | 1016.7 |
| 20260903143137 | 75 | 137 | 0.0 | 0.0 | 0.00 | 0.32 | 0.00 | 96 | 1016.7 |
| 20260903142818 | 75 | 137 | 0.0 | 1.0 | 0.00 | 0.32 | 0.00 | 97 | 1016.6 |
| 20260903142714 | 75 | 198 | 0.0 | 1.0 | 0.00 | 0.32 | 0.00 | 97 | 1016.6 |
| 20260903142130 | 75 | 103 | 0.0 | 2.0 | 0.00 | 0.32 | 0.00 | 97 | 1016.7 |
| 20260903142026 | 75 | 103 | 0.0 | 2.0 | 0.00 | 0.32 | 0.00 | 97 | 1016.6 |
| 20260903141918 | 75 | 103 | 0.0 | 2.0 | 0.00 | 0.32 | 0.00 | 97 | 1016.6 |
| 20260903141812 | 75 | 103 | 0.0 | 2.0 | 0.00 | 0.32 | 0.00 | 97 | 1016.6 |
| 20260903141706 | 75 | 103 | 0.0 | 2.0 | 0.00 | 0.32 | 0.00 | 97 | 1016.5 |
| 20260903141604 | 75 | 291 | 0.0 | 2.0 | 0.00 | 0.32 | 0.00 | 97 | 1016.5 |
| 20260903141458 | 75 | 9 | 0.0 | 2.0 | 0.00 | 0.32 | 0.00 | 97 | 1016.5 |
| 20260903141352 | 75 | 34 | 0.0 | 2.0 | 0.00 | 0.32 | 0.00 | 97 | 1016.4 |
| 20260903141247 | 75 | 11 | 0.0 | 1.0 | 0.00 | 0.32 | 0.00 | 97 | 1016.4 |
| 20260903141142 | 75 | 114 | 0.0 | 0.0 | 0.00 | 0.32 | 0.00 | 97 | 1016.4 |
| 20260903140604 | 75 | 260 | 0.0 | 0.0 | 0.00 | 0.32 | 0.00 | 98 | 1016.4 |
| 20260903140457 | 74 | 210 | 0.0 | 0.0 | 0.00 | 0.32 | 0.00 | 98 | 1016.4 |
| 20260903140350 | 75 | 210 | 0.0 | 0.0 | 0.00 | 0.32 | 0.00 | 98 | 1016.3 |
| 20260903140246 | 75 | 210 | 0.0 | 0.0 | 0.00 | 0.32 | 0.00 | 98 | 1016.3 |
| 20260903140142 | 74 | 261 | 0.0 | 0.0 | 0.00 | 0.32 | 0.00 | 98 | 1016.3 |
| 20260903140037 | 74 | 300 | 0.0 | 0.0 | 0.00 | 0.32 | 0.00 | 98 | 1016.3 |
| 20260903135929 | 74 | 276 | 0.0 | 0.0 | 0.00 | 0.32 | 0.00 | 98 | 1016.3 |
| 20260903135824 | 74 | 276 | 0.0 | 0.0 | 0.00 | 0.32 | 0.00 | 98 | 1016.3 |
| 20260903135717 | 74 | 276 | 0.0 | 0.0 | 0.00 | 0.32 | 0.00 | 97 | 1016.3 |
| 20260903135613 | 74 | 276 | 0.0 | 0.0 | 0.00 | 0.32 | 0.00 | 97 | 1016.4 |
| 20260903135509 | 74 | 276 | 0.0 | 0.0 | 0.00 | 0.32 | 0.00 | 97 | 1016.4 |
| 20260903134704 | 74 | 271 | 0.0 | 1.0 | 0.00 | 0.32 | 0.00 | 98 | 1016.4 |
| 20260903134557 | 74 | 271 | 0.0 | 1.0 | 0.00 | 0.32 | 0.00 | 98 | 1016.4 |
| 20260903134450 | 74 | 271 | 0.0 | 1.0 | 0.00 | 0.32 | 0.00 | 98 | 1016.4 |
| 20260903134343 | 74 | 299 | 0.0 | 1.0 | 0.00 | 0.32 | 0.00 | 98 | 1016.4 |
| 20260903134238 | 74 | 284 | 0.0 | 1.0 | 0.00 | 0.32 | 0.00 | 98 | 1016.4 |
| 20260903134134 | 74 | 272 | 0.0 | 1.0 | 0.00 | 0.32 | 0.00 | 98 | 1016.4 |
| 20260903134029 | 74 | 22 | 0.0 | 0.0 | 0.00 | 0.32 | 0.00 | 98 | 1016.3 |
| 20260903133923 | 74 | 22 | 0.0 | 0.0 | 0.00 | 0.32 | 0.00 | 98 | 1016.4 |
| 20260903133816 | 74 | 22 | 0.0 | 0.0 | 0.00 | 0.32 | 0.00 | 98 | 1016.5 |
| 20260903133714 | 74 | 22 | 0.0 | 0.0 | 0.00 | 0.32 | 0.00 | 98 | 1016.5 |
| 20260903133608 | 74 | 22 | 0.0 | 0.0 | 0.00 | 0.32 | 0.00 | 98 | 1016.6 |
| 20260903133022 | 74 | 22 | 0.0 | 0.0 | 0.00 | 0.32 | 0.00 | 97 | 1016.6 |
| 20260903132917 | 74 | 22 | 0.0 | 0.0 | 0.00 | 0.32 | 0.00 | 98 | 1016.6 |
| 20260903132810 | 74 | 22 | 0.0 | 0.0 | 0.00 | 0.32 | 0.00 | 97 | 1016.7 |
| 20260903132443 | 74 | 22 | 0.0 | 1.0 | 0.00 | 0.32 | 0.00 | 97 | 1016.7 |
| 20260903132336 | 74 | 22 | 0.0 | 1.0 | 0.00 | 0.32 | 0.00 | 97 | 1016.8 |
| 20260903132231 | 74 | 65 | 0.0 | 0.0 | 0.00 | 0.32 | 0.00 | 98 | 1016.8 |
| 20260903132126 | 74 | 252 | 0.0 | 0.0 | 0.00 | 0.32 | 0.00 | 97 | 1016.8 |
| 20260903132018 | 74 | 252 | 0.0 | 0.0 | 0.00 | 0.32 | 0.00 | 98 | 1016.9 |
| 20260903131913 | 74 | 252 | 0.0 | 0.0 | 0.00 | 0.32 | 0.00 | 98 | 1016.9 |
| 20260903131810 | 74 | 252 | 0.0 | 0.0 | 0.00 | 0.32 | 0.00 | 98 | 1017.0 |
| 20260903131705 | 74 | 252 | 0.0 | 0.0 | 0.00 | 0.32 | 0.00 | 98 | 1017.0 |
| 20260903131601 | 74 | 252 | 0.0 | 1.0 | 0.00 | 0.32 | 0.00 | 98 | 1017.0 |
| 20260903131459 | 74 | 252 | 0.0 | 1.0 | 0.00 | 0.32 | 0.00 | 98 | 1016.9 |
| 20260903131357 | 74 | 44 | 0.0 | 1.0 | 0.00 | 0.32 | 0.00 | 98 | 1016.9 |
| 20260903131250 | 73 | 344 | 0.0 | 1.0 | 0.00 | 0.32 | 0.00 | 98 | 1016.9 |
| 20260903131145 | 73 | 344 | 0.0 | 1.0 | 0.00 | 0.32 | 0.00 | 98 | 1016.9 |
| 20260903131038 | 73 | 299 | 0.0 | 1.0 | 0.00 | 0.32 | 0.00 | 98 | 1017.0 |
| 20260903130453 | 73 | 109 | 0.0 | 1.0 | 0.00 | 0.32 | 0.00 | 97 | 1017.2 |
| 20260903130347 | 73 | 109 | 0.0 | 1.0 | 0.00 | 0.32 | 0.00 | 97 | 1017.3 |
| 20260903125801 | 73 | 336 | 0.0 | 0.0 | 0.00 | 0.32 | 0.00 | 97 | 1017.4 |
| 20260903125657 | 73 | 334 | 0.0 | 0.0 | 0.00 | 0.32 | 0.00 | 97 | 1017.5 |
| 20260903125555 | 73 | 334 | 0.0 | 0.0 | 0.00 | 0.32 | 0.00 | 97 | 1017.5 |
| 20260903125449 | 73 | 334 | 0.0 | 0.0 | 0.00 | 0.32 | 0.00 | 97 | 1017.5 |
| 20260903125345 | 73 | 334 | 0.0 | 0.0 | 0.00 | 0.32 | 0.00 | 98 | 1017.6 |
| 20260903125242 | 73 | 334 | 0.0 | 0.0 | 0.00 | 0.32 | 0.00 | 98 | 1017.5 |
| 20260903125138 | 73 | 334 | 0.0 | 0.0 | 0.00 | 0.32 | 0.00 | 97 | 1017.6 |
| 20260903125036 | 73 | 334 | 0.0 | 0.0 | 0.00 | 0.32 | 0.00 | 97 | 1017.6 |
| 20260903124929 | 73 | 334 | 0.0 | 0.0 | 0.00 | 0.32 | 0.00 | 98 | 1017.6 |
| 20260903124823 | 73 | 334 | 0.0 | 0.0 | 0.00 | 0.32 | 0.00 | 98 | 1017.6 |
| 20260903124720 | 73 | 334 | 0.0 | 0.0 | 0.00 | 0.32 | 0.00 | 98 | 1017.6 |
| 20260903124614 | 73 | 334 | 0.0 | 0.0 | 0.00 | 0.32 | 0.00 | 98 | 1017.7 |
| 20260903124507 | 73 | 334 | 0.0 | 0.0 | 0.00 | 0.32 | 0.00 | 98 | 1017.6 |
| 20260903124403 | 73 | 324 | 0.0 | 0.0 | 0.00 | 0.32 | 0.00 | 98 | 1017.6 |
| 20260903123555 | 72 | 24 | 0.0 | 1.0 | 0.00 | 0.32 | 0.00 | 97 | 1017.6 |
| 20260903123451 | 72 | 24 | 0.0 | 1.0 | 0.00 | 0.32 | 0.00 | 98 | 1017.6 |
| 20260903123344 | 72 | 24 | 0.0 | 1.0 | 0.00 | 0.32 | 0.00 | 97 | 1017.6 |
| 20260903123239 | 72 | 308 | 0.0 | 1.0 | 0.00 | 0.32 | 0.00 | 97 | 1017.7 |
| 20260903122912 | 72 | 5 | 0.0 | 1.0 | 0.00 | 0.32 | 0.00 | 97 | 1017.6 |
| 20260903122805 | 72 | 5 | 0.0 | 1.0 | 0.00 | 0.32 | 0.00 | 97 | 1017.6 |
| 20260903122700 | 72 | 19 | 0.0 | 0.0 | 0.00 | 0.32 | 0.00 | 97 | 1017.6 |
| 20260903122554 | 72 | 19 | 0.0 | 0.0 | 0.00 | 0.32 | 0.00 | 97 | 1017.6 |
| 20260903122448 | 72 | 19 | 0.0 | 0.0 | 0.00 | 0.32 | 0.00 | 97 | 1017.6 |
| 20260903122342 | 72 | 19 | 0.0 | 2.0 | 0.00 | 0.32 | 0.00 | 97 | 1017.6 |
| 20260903122235 | 72 | 19 | 0.0 | 2.0 | 0.00 | 0.32 | 0.00 | 97 | 1017.7 |
| 20260903122131 | 72 | 19 | 0.0 | 2.0 | 0.00 | 0.32 | 0.00 | 97 | 1017.7 |
| 20260903122026 | 72 | 19 | 0.0 | 2.0 | 0.00 | 0.32 | 0.00 | 97 | 1017.6 |
| 20260903121439 | 72 | 22 | 0.0 | 2.0 | 0.00 | 0.32 | 0.00 | 97 | 1017.6 |
| 20260903121335 | 72 | 87 | 0.0 | 2.0 | 0.00 | 0.32 | 0.00 | 97 | 1017.6 |
| 20260903121227 | 72 | 36 | 0.0 | 2.0 | 0.00 | 0.32 | 0.00 | 97 | 1017.6 |
| 20260903120901 | 72 | 62 | 0.0 | 2.0 | 0.00 | 0.32 | 0.00 | 97 | 1017.5 |
| 20260903120754 | 72 | 5 | 0.0 | 2.0 | 0.00 | 0.32 | 0.00 | 97 | 1017.5 |
| 20260903120431 | 72 | 11 | 0.0 | 2.0 | 0.00 | 0.32 | 0.00 | 97 | 1017.4 |
| 20260903120323 | 72 | 0 | 0.0 | 2.0 | 0.00 | 0.32 | 0.00 | 97 | 1017.4 |
| 20260903120216 | 72 | 63 | 0.0 | 2.0 | 0.00 | 0.32 | 0.00 | 97 | 1017.4 |
| 20260903120109 | 72 | 24 | 0.0 | 2.0 | 0.00 | 0.32 | 0.00 | 97 | 1017.4 |
| 20260903120002 | 72 | 26 | 0.0 | 2.0 | 0.00 | 0.32 | 0.00 | 97 | 1017.5 |
| 20260903115856 | 72 | 355 | 0.0 | 2.0 | 0.00 | 0.32 | 0.00 | 97 | 1017.5 |
| 20260903115753 | 72 | 355 | 0.0 | 2.0 | 0.00 | 0.32 | 0.00 | 97 | 1017.5 |
| 20260903115649 | 72 | 355 | 0.0 | 3.0 | 0.00 | 0.32 | 0.00 | 97 | 1017.5 |
| 20260903115541 | 72 | 33 | 0.0 | 3.0 | 0.00 | 0.32 | 0.00 | 97 | 1017.5 |
| 20260903115215 | 72 | 348 | 0.0 | 3.0 | 0.00 | 0.32 | 0.00 | 97 | 1017.6 |
| 20260903115111 | 72 | 5 | 0.0 | 3.0 | 0.00 | 0.32 | 0.00 | 97 | 1017.6 |
| 20260903115004 | 72 | 5 | 0.0 | 3.0 | 0.00 | 0.32 | 0.00 | 97 | 1017.6 |
| 20260903114859 | 72 | 58 | 0.0 | 3.0 | 0.00 | 0.32 | 0.00 | 97 | 1017.5 |
| 20260903114754 | 72 | 58 | 0.0 | 3.0 | 0.00 | 0.32 | 0.00 | 97 | 1017.5 |
| 20260903114651 | 72 | 52 | 0.0 | 3.0 | 0.00 | 0.32 | 0.00 | 97 | 1017.5 |
| 20260903114325 | 72 | 30 | 0.0 | 3.0 | 0.00 | 0.32 | 0.00 | 97 | 1017.5 |
| 20260903114218 | 72 | 26 | 0.0 | 3.0 | 0.00 | 0.32 | 0.00 | 97 | 1017.5 |
| 20260903114112 | 72 | 16 | 0.0 | 3.0 | 0.00 | 0.32 | 0.00 | 97 | 1017.5 |
| 20260903114006 | 72 | 17 | 0.0 | 3.0 | 0.00 | 0.32 | 0.00 | 97 | 1017.5 |
| 20260903113901 | 72 | 71 | 0.0 | 3.0 | 0.00 | 0.32 | 0.00 | 97 | 1017.4 |
| 20260903113753 | 72 | 19 | 0.0 | 3.0 | 0.00 | 0.32 | 0.00 | 97 | 1017.5 |
| 20260903113646 | 72 | 349 | 0.0 | 1.0 | 0.00 | 0.32 | 0.00 | 97 | 1017.4 |
| 20260903113320 | 72 | 32 | 0.0 | 1.0 | 0.00 | 0.32 | 0.00 | 97 | 1017.3 |
| 20260903112959 | 72 | 349 | 0.0 | 2.0 | 0.00 | 0.32 | 0.00 | 97 | 1017.1 |
| 20260903112855 | 72 | 113 | 0.0 | 2.0 | 0.00 | 0.32 | 0.00 | 97 | 1017.1 |
| 20260903112753 | 72 | 61 | 0.0 | 2.0 | 0.00 | 0.32 | 0.00 | 97 | 1017.1 |
| 20260903112428 | 72 | 347 | 0.0 | 2.0 | 0.00 | 0.32 | 0.00 | 97 | 1017.1 |
| 20260903111850 | 72 | 296 | 0.0 | 1.0 | 0.00 | 0.32 | 0.00 | 97 | 1016.7 |
| 20260903111745 | 72 | 296 | 0.0 | 1.0 | 0.00 | 0.32 | 0.00 | 97 | 1016.6 |
| 20260903111639 | 72 | 296 | 0.0 | 1.0 | 0.00 | 0.32 | 0.00 | 97 | 1016.6 |
| 20260903111537 | 72 | 296 | 0.0 | 1.0 | 0.00 | 0.32 | 0.00 | 97 | 1016.6 |
| 20260903111215 | 72 | 257 | 0.0 | 1.0 | 0.00 | 0.32 | 0.00 | 97 | 1016.5 |
| 20260903111108 | 72 | 355 | 0.0 | 0.0 | 0.00 | 0.32 | 0.00 | 97 | 1016.6 |
| 20260903111003 | 72 | 342 | 0.0 | 0.0 | 0.00 | 0.32 | 0.00 | 97 | 1016.7 |
| 20260903110856 | 72 | 342 | 0.0 | 0.0 | 0.00 | 0.32 | 0.00 | 97 | 1016.7 |
| 20260903110749 | 72 | 342 | 0.0 | 0.0 | 0.00 | 0.32 | 0.00 | 97 | 1016.6 |
| 20260903110644 | 72 | 342 | 0.0 | 0.0 | 0.00 | 0.32 | 0.00 | 97 | 1016.6 |
| 20260903110317 | 72 | 286 | 0.0 | 2.0 | 0.00 | 0.32 | 0.00 | 97 | 1016.5 |
| 20260903110211 | 72 | 350 | 0.0 | 1.0 | 0.00 | 0.32 | 0.00 | 97 | 1016.5 |
| 20260903110106 | 72 | 350 | 0.0 | 1.0 | 0.00 | 0.32 | 0.00 | 97 | 1016.5 |
| 20260903110000 | 72 | 350 | 0.0 | 1.0 | 0.00 | 0.32 | 0.00 | 97 | 1016.4 |
| 20260903105854 | 72 | 350 | 0.0 | 1.0 | 0.00 | 0.32 | 0.00 | 97 | 1016.3 |
| 20260903105747 | 72 | 350 | 0.0 | 1.0 | 0.00 | 0.32 | 0.00 | 97 | 1016.3 |
| 20260903105641 | 72 | 350 | 0.0 | 1.0 | 0.00 | 0.32 | 0.00 | 97 | 1016.2 |
| 20260903105537 | 72 | 350 | 0.0 | 1.0 | 0.00 | 0.32 | 0.00 | 97 | 1016.2 |
| 20260903105214 | 71 | 315 | 0.0 | 0.0 | 0.00 | 0.32 | 0.00 | 97 | 1016.0 |
| 20260903105110 | 71 | 315 | 0.0 | 0.0 | 0.00 | 0.32 | 0.00 | 97 | 1016.0 |
| 20260903105004 | 71 | 315 | 0.0 | 0.0 | 0.00 | 0.32 | 0.00 | 97 | 1015.9 |
| 20260903104900 | 71 | 315 | 0.0 | 0.0 | 0.00 | 0.32 | 0.00 | 97 | 1015.9 |
| 20260903104534 | 71 | 274 | 0.0 | 0.0 | 0.00 | 0.32 | 0.00 | 97 | 1015.8 |
| 20260903104431 | 71 | 274 | 0.0 | 0.0 | 0.00 | 0.32 | 0.00 | 97 | 1015.8 |
| 20260903104329 | 71 | 274 | 0.0 | 0.0 | 0.00 | 0.32 | 0.00 | 97 | 1015.8 |
| 20260903104224 | 71 | 274 | 0.0 | 0.0 | 0.00 | 0.32 | 0.00 | 97 | 1015.8 |
| 20260903104117 | 71 | 274 | 0.0 | 0.0 | 0.00 | 0.32 | 0.00 | 97 | 1015.8 |
| 20260903104009 | 71 | 274 | 0.0 | 0.0 | 0.00 | 0.32 | 0.00 | 97 | 1015.7 |
| 20260903103905 | 71 | 274 | 0.0 | 0.0 | 0.00 | 0.32 | 0.00 | 97 | 1015.7 |
| 20260903103803 | 71 | 274 | 0.0 | 0.0 | 0.00 | 0.32 | 0.00 | 97 | 1015.7 |
| 20260903103656 | 71 | 274 | 0.0 | 0.0 | 0.00 | 0.32 | 0.00 | 97 | 1015.7 |
| 20260903103549 | 71 | 274 | 0.0 | 0.0 | 0.00 | 0.32 | 0.00 | 97 | 1015.7 |
| 20260903103446 | 71 | 274 | 0.0 | 0.0 | 0.00 | 0.32 | 0.00 | 97 | 1015.6 |
| 20260903103342 | 71 | 274 | 0.0 | 0.0 | 0.00 | 0.32 | 0.00 | 97 | 1015.6 |
| 20260903103235 | 71 | 274 | 0.0 | 0.0 | 0.00 | 0.32 | 0.00 | 97 | 1015.5 |
| 20260903103130 | 71 | 274 | 0.0 | 0.0 | 0.00 | 0.32 | 0.00 | 97 | 1015.5 |
| 20260903102545 | 71 | 274 | 0.0 | 0.0 | 0.00 | 0.32 | 0.00 | 97 | 1015.5 |
| 20260903102439 | 71 | 274 | 0.0 | 0.0 | 0.00 | 0.32 | 0.00 | 97 | 1015.5 |
| 20260903102335 | 71 | 274 | 0.0 | 0.0 | 0.00 | 0.32 | 0.00 | 97 | 1015.4 |
| 20260903102229 | 71 | 274 | 0.0 | 0.0 | 0.00 | 0.32 | 0.00 | 97 | 1015.4 |
| 20260903102122 | 71 | 274 | 0.0 | 0.0 | 0.00 | 0.32 | 0.00 | 97 | 1015.5 |
| 20260903102018 | 71 | 274 | 0.0 | 0.0 | 0.00 | 0.32 | 0.00 | 97 | 1015.4 |
| 20260903101912 | 71 | 274 | 0.0 | 0.0 | 0.00 | 0.32 | 0.00 | 97 | 1015.5 |
| 20260903101551 | 71 | 274 | 0.0 | 0.0 | 0.00 | 0.32 | 0.00 | 97 | 1015.4 |
| 20260903101445 | 71 | 274 | 0.0 | 0.0 | 0.00 | 0.32 | 0.00 | 97 | 1015.3 |
| 20260903101125 | 71 | 274 | 0.0 | 0.0 | 0.00 | 0.32 | 0.00 | 97 | 1015.4 |
| 20260903101023 | 71 | 274 | 0.0 | 0.0 | 0.00 | 0.32 | 0.00 | 97 | 1015.4 |
| 20260903100920 | 71 | 274 | 0.0 | 0.0 | 0.00 | 0.32 | 0.00 | 97 | 1015.4 |
| 20260903100817 | 71 | 274 | 0.0 | 0.0 | 0.00 | 0.32 | 0.00 | 97 | 1015.4 |
| 20260903100713 | 71 | 274 | 0.0 | 0.0 | 0.00 | 0.32 | 0.00 | 97 | 1015.4 |
| 20260903100611 | 71 | 274 | 0.0 | 0.0 | 0.00 | 0.32 | 0.00 | 97 | 1015.4 |
| 20260903100503 | 71 | 274 | 0.0 | 0.0 | 0.00 | 0.32 | 0.00 | 97 | 1015.4 |
| 20260903100401 | 71 | 274 | 0.0 | 0.0 | 0.00 | 0.32 | 0.00 | 97 | 1015.3 |
| 20260903100258 | 71 | 274 | 0.0 | 0.0 | 0.00 | 0.32 | 0.00 | 97 | 1015.4 |
| 20260903100151 | 71 | 274 | 0.0 | 0.0 | 0.00 | 0.32 | 0.00 | 97 | 1015.4 |
| 20260903100048 | 71 | 274 | 0.0 | 0.0 | 0.00 | 0.32 | 0.00 | 97 | 1015.4 |
| 20260903095726 | 71 | 274 | 0.0 | 0.0 | 0.00 | 0.32 | 0.00 | 97 | 1015.5 |
| 20260903095620 | 71 | 274 | 0.0 | 0.0 | 0.00 | 0.32 | 0.00 | 97 | 1015.4 |
| 20260903095512 | 71 | 274 | 0.0 | 0.0 | 0.00 | 0.32 | 0.00 | 97 | 1015.5 |
| 20260903095148 | 71 | 274 | 0.0 | 0.0 | 0.00 | 0.32 | 0.00 | 97 | 1015.5 |
| 20260903095041 | 71 | 274 | 0.0 | 0.0 | 0.00 | 0.32 | 0.00 | 97 | 1015.5 |
| 20260903094936 | 71 | 274 | 0.0 | 0.0 | 0.00 | 0.32 | 0.00 | 97 | 1015.5 |
| 20260903094831 | 71 | 274 | 0.0 | 0.0 | 0.00 | 0.32 | 0.00 | 97 | 1015.5 |
| 20260903094728 | 71 | 274 | 0.0 | 0.0 | 0.00 | 0.32 | 0.00 | 97 | 1015.5 |
| 20260903094621 | 71 | 274 | 0.0 | 0.0 | 0.00 | 0.32 | 0.00 | 97 | 1015.5 |
| 20260903094515 | 71 | 274 | 0.0 | 0.0 | 0.00 | 0.32 | 0.00 | 97 | 1015.5 |
| 20260903094413 | 71 | 274 | 0.0 | 0.0 | 0.00 | 0.32 | 0.00 | 97 | 1015.5 |
| 20260903094311 | 71 | 274 | 0.0 | 0.0 | 0.00 | 0.32 | 0.00 | 97 | 1015.5 |
| 20260903094207 | 71 | 274 | 0.0 | 0.0 | 0.00 | 0.32 | 0.00 | 97 | 1015.5 |
| 20260903094100 | 71 | 274 | 0.0 | 0.0 | 0.00 | 0.32 | 0.00 | 97 | 1015.5 |
| 20260903093953 | 71 | 274 | 0.0 | 0.0 | 0.00 | 0.32 | 0.00 | 97 | 1015.6 |
| 20260903093849 | 71 | 274 | 0.0 | 0.0 | 0.00 | 0.32 | 0.00 | 97 | 1015.5 |
| 20260903093748 | 71 | 274 | 0.0 | 0.0 | 0.00 | 0.32 | 0.00 | 97 | 1015.5 |
| 20260903093644 | 71 | 274 | 0.0 | 0.0 | 0.00 | 0.32 | 0.00 | 97 | 1015.6 |
| 20260903093322 | 71 | 274 | 0.0 | 0.0 | 0.00 | 0.32 | 0.00 | 97 | 1015.5 |
| 20260903093220 | 71 | 274 | 0.0 | 0.0 | 0.00 | 0.32 | 0.00 | 97 | 1015.5 |
| 20260903093118 | 71 | 274 | 0.0 | 0.0 | 0.00 | 0.32 | 0.00 | 97 | 1015.5 |
| 20260903093011 | 71 | 274 | 0.0 | 0.0 | 0.00 | 0.32 | 0.00 | 97 | 1015.5 |
| 20260903092903 | 71 | 274 | 0.0 | 0.0 | 0.00 | 0.32 | 0.00 | 97 | 1015.5 |
| 20260903092755 | 71 | 274 | 0.0 | 0.0 | 0.00 | 0.32 | 0.00 | 97 | 1015.5 |
| 20260903092648 | 71 | 274 | 0.0 | 0.0 | 0.00 | 0.32 | 0.00 | 97 | 1015.6 |
| 20260903092541 | 71 | 274 | 0.0 | 0.0 | 0.00 | 0.32 | 0.00 | 97 | 1015.6 |
| 20260903092439 | 71 | 274 | 0.0 | 0.0 | 0.00 | 0.32 | 0.00 | 97 | 1015.6 |
| 20260903092331 | 71 | 274 | 0.0 | 0.0 | 0.00 | 0.32 | 0.00 | 97 | 1015.6 |
| 20260903092225 | 71 | 274 | 0.0 | 0.0 | 0.00 | 0.32 | 0.00 | 97 | 1015.6 |
| 20260903092123 | 71 | 274 | 0.0 | 0.0 | 0.00 | 0.32 | 0.00 | 97 | 1015.6 |
| 20260903092020 | 71 | 274 | 0.0 | 0.0 | 0.00 | 0.32 | 0.00 | 97 | 1015.7 |
| 20260903091913 | 71 | 274 | 0.0 | 0.0 | 0.00 | 0.32 | 0.00 | 97 | 1015.7 |
| 20260903091807 | 71 | 274 | 0.0 | 0.0 | 0.00 | 0.32 | 0.00 | 97 | 1015.6 |
| 20260903091701 | 71 | 274 | 0.0 | 0.0 | 0.00 | 0.32 | 0.00 | 97 | 1015.6 |
| 20260903091556 | 71 | 307 | 0.0 | 0.0 | 0.00 | 0.32 | 0.00 | 97 | 1015.6 |
| 20260903091450 | 71 | 307 | 0.0 | 1.0 | 0.00 | 0.32 | 0.00 | 97 | 1015.6 |
| 20260903091346 | 71 | 307 | 0.0 | 1.0 | 0.00 | 0.32 | 0.00 | 97 | 1015.6 |
| 20260903091243 | 71 | 247 | 0.0 | 0.0 | 0.00 | 0.32 | 0.00 | 97 | 1015.6 |
| 20260903090916 | 71 | 247 | 0.0 | 0.0 | 0.00 | 0.32 | 0.00 | 97 | 1015.6 |
| 20260903090811 | 71 | 247 | 0.0 | 0.0 | 0.00 | 0.32 | 0.00 | 97 | 1015.6 |
| 20260903090709 | 71 | 247 | 0.0 | 0.0 | 0.00 | 0.32 | 0.00 | 97 | 1015.5 |
| 20260903090345 | 71 | 247 | 0.0 | 0.0 | 0.00 | 0.32 | 0.00 | 97 | 1015.6 |
| 20260903090238 | 71 | 247 | 0.0 | 0.0 | 0.00 | 0.32 | 0.00 | 97 | 1015.6 |
| 20260903090130 | 71 | 247 | 0.0 | 0.0 | 0.00 | 0.32 | 0.00 | 97 | 1015.6 |
| 20260903085802 | 71 | 247 | 0.0 | 0.0 | 0.00 | 0.32 | 0.00 | 97 | 1015.6 |
| 20260903085655 | 71 | 247 | 0.0 | 0.0 | 0.00 | 0.32 | 0.00 | 97 | 1015.6 |
| 20260903085549 | 71 | 247 | 0.0 | 0.0 | 0.00 | 0.32 | 0.00 | 97 | 1015.6 |
| 20260903085443 | 71 | 247 | 0.0 | 0.0 | 0.00 | 0.32 | 0.00 | 97 | 1015.6 |
| 20260903085337 | 71 | 247 | 0.0 | 0.0 | 0.00 | 0.32 | 0.00 | 97 | 1015.6 |
| 20260903085234 | 71 | 247 | 0.0 | 0.0 | 0.00 | 0.32 | 0.00 | 97 | 1015.6 |
| 20260903085131 | 71 | 247 | 0.0 | 0.0 | 0.00 | 0.32 | 0.00 | 97 | 1015.6 |
| 20260903085024 | 71 | 247 | 0.0 | 0.0 | 0.00 | 0.32 | 0.00 | 97 | 1015.5 |
| 20260903084921 | 71 | 247 | 0.0 | 0.0 | 0.00 | 0.32 | 0.00 | 97 | 1015.6 |
| 20260903084818 | 71 | 247 | 0.0 | 0.0 | 0.00 | 0.32 | 0.00 | 97 | 1015.6 |
| 20260903084711 | 71 | 247 | 0.0 | 0.0 | 0.00 | 0.32 | 0.00 | 97 | 1015.5 |
| 20260903084606 | 71 | 247 | 0.0 | 0.0 | 0.00 | 0.32 | 0.00 | 97 | 1015.6 |
| 20260903084503 | 71 | 247 | 0.0 | 0.0 | 0.00 | 0.32 | 0.00 | 97 | 1015.5 |
| 20260903084358 | 71 | 247 | 0.0 | 0.0 | 0.00 | 0.32 | 0.00 | 97 | 1015.5 |
| 20260903084255 | 71 | 247 | 0.0 | 0.0 | 0.00 | 0.32 | 0.00 | 97 | 1015.5 |
| 20260903084150 | 71 | 247 | 0.0 | 0.0 | 0.00 | 0.32 | 0.00 | 97 | 1015.5 |
| 20260903084047 | 71 | 247 | 0.0 | 0.0 | 0.00 | 0.32 | 0.00 | 97 | 1015.5 |
| 20260903083943 | 71 | 247 | 0.0 | 0.0 | 0.00 | 0.32 | 0.00 | 97 | 1015.5 |
| 20260903083838 | 71 | 247 | 0.0 | 0.0 | 0.00 | 0.32 | 0.00 | 97 | 1015.5 |
| 20260903083512 | 71 | 247 | 0.0 | 0.0 | 0.00 | 0.32 | 0.00 | 97 | 1015.6 |
| 20260903083407 | 71 | 247 | 0.0 | 0.0 | 0.00 | 0.32 | 0.00 | 97 | 1015.5 |
| 20260903083303 | 71 | 247 | 0.0 | 0.0 | 0.00 | 0.32 | 0.00 | 97 | 1015.5 |
| 20260903083156 | 71 | 247 | 0.0 | 0.0 | 0.00 | 0.32 | 0.00 | 97 | 1015.5 |
| 20260903083050 | 71 | 247 | 0.0 | 0.0 | 0.00 | 0.32 | 0.00 | 97 | 1015.5 |
| 20260903082943 | 71 | 247 | 0.0 | 0.0 | 0.00 | 0.32 | 0.00 | 97 | 1015.6 |
| 20260903082835 | 71 | 247 | 0.0 | 0.0 | 0.00 | 0.32 | 0.00 | 97 | 1015.6 |
| 20260903082733 | 71 | 247 | 0.0 | 0.0 | 0.00 | 0.32 | 0.00 | 97 | 1015.6 |
| 20260903082625 | 71 | 247 | 0.0 | 0.0 | 0.00 | 0.32 | 0.00 | 97 | 1015.6 |
| 20260903082520 | 71 | 247 | 0.0 | 0.0 | 0.00 | 0.32 | 0.00 | 97 | 1015.6 |
| 20260903082411 | 71 | 247 | 0.0 | 0.0 | 0.00 | 0.32 | 0.00 | 97 | 1015.6 |
| 20260903082306 | 71 | 247 | 0.0 | 0.0 | 0.00 | 0.32 | 0.00 | 97 | 1015.7 |
| 20260903082202 | 71 | 247 | 0.0 | 0.0 | 0.00 | 0.32 | 0.00 | 97 | 1015.6 |
| 20260903082058 | 71 | 247 | 0.0 | 0.0 | 0.00 | 0.32 | 0.00 | 97 | 1015.6 |
| 20260903081956 | 71 | 247 | 0.0 | 0.0 | 0.00 | 0.32 | 0.00 | 97 | 1015.6 |
| 20260903081852 | 71 | 247 | 0.0 | 0.0 | 0.00 | 0.32 | 0.00 | 97 | 1015.6 |
| 20260903081748 | 71 | 247 | 0.0 | 0.0 | 0.00 | 0.32 | 0.00 | 97 | 1015.6 |
| 20260903081645 | 71 | 247 | 0.0 | 0.0 | 0.00 | 0.32 | 0.00 | 97 | 1015.6 |
| 20260903081541 | 71 | 247 | 0.0 | 0.0 | 0.00 | 0.32 | 0.00 | 97 | 1015.6 |
| 20260903081435 | 71 | 247 | 0.0 | 0.0 | 0.00 | 0.32 | 0.00 | 97 | 1015.6 |
| 20260903081110 | 71 | 247 | 0.0 | 0.0 | 0.00 | 0.32 | 0.00 | 97 | 1015.6 |
| 20260903081005 | 71 | 247 | 0.0 | 0.0 | 0.00 | 0.32 | 0.00 | 97 | 1015.6 |
| 20260903080640 | 71 | 247 | 0.0 | 0.0 | 0.00 | 0.32 | 0.00 | 97 | 1015.6 |
| 20260903080537 | 71 | 247 | 0.0 | 0.0 | 0.00 | 0.32 | 0.00 | 97 | 1015.6 |
| 20260903080434 | 71 | 247 | 0.0 | 0.0 | 0.00 | 0.32 | 0.00 | 97 | 1015.7 |
| 20260903080330 | 71 | 247 | 0.0 | 0.0 | 0.00 | 0.32 | 0.00 | 97 | 1015.6 |
| 20260903080227 | 71 | 247 | 0.0 | 0.0 | 0.00 | 0.32 | 0.00 | 97 | 1015.7 |
| 20260903075903 | 71 | 247 | 0.0 | 0.0 | 0.00 | 0.32 | 0.00 | 97 | 1015.6 |
| 20260903075755 | 71 | 247 | 0.0 | 0.0 | 0.00 | 0.32 | 0.00 | 97 | 1015.6 |
| 20260903075652 | 71 | 247 | 0.0 | 0.0 | 0.00 | 0.32 | 0.00 | 97 | 1015.6 |
| 20260903075323 | 71 | 247 | 0.0 | 0.0 | 0.00 | 0.32 | 0.00 | 97 | 1015.6 |
| 20260903074959 | 71 | 247 | 0.0 | 0.0 | 0.00 | 0.32 | 0.00 | 97 | 1015.5 |
| 20260903074852 | 71 | 247 | 0.0 | 0.0 | 0.00 | 0.32 | 0.00 | 97 | 1015.5 |
| 20260903074745 | 71 | 247 | 0.0 | 0.0 | 0.00 | 0.32 | 0.00 | 97 | 1015.5 |
| 20260903074419 | 71 | 247 | 0.0 | 0.0 | 0.00 | 0.32 | 0.00 | 97 | 1015.5 |
| 20260903074313 | 71 | 247 | 0.0 | 0.0 | 0.00 | 0.32 | 0.00 | 97 | 1015.5 |
| 20260903074205 | 71 | 247 | 0.0 | 0.0 | 0.00 | 0.32 | 0.00 | 97 | 1015.5 |
| 20260903074100 | 71 | 247 | 0.0 | 0.0 | 0.00 | 0.32 | 0.00 | 97 | 1015.5 |
| 20260903073952 | 71 | 247 | 0.0 | 0.0 | 0.00 | 0.32 | 0.00 | 97 | 1015.4 |
| 20260903073846 | 71 | 247 | 0.0 | 0.0 | 0.00 | 0.32 | 0.00 | 97 | 1015.4 |
| 20260903073743 | 71 | 247 | 0.0 | 0.0 | 0.00 | 0.32 | 0.00 | 97 | 1015.3 |
| 20260903073639 | 71 | 247 | 0.0 | 0.0 | 0.00 | 0.32 | 0.00 | 97 | 1015.4 |
| 20260903073533 | 71 | 247 | 0.0 | 0.0 | 0.00 | 0.32 | 0.00 | 97 | 1015.4 |
| 20260903073429 | 71 | 247 | 0.0 | 0.0 | 0.00 | 0.32 | 0.00 | 97 | 1015.4 |
| 20260903073325 | 71 | 247 | 0.0 | 0.0 | 0.00 | 0.32 | 0.00 | 97 | 1015.3 |
| 20260903073217 | 71 | 214 | 0.0 | 0.0 | 0.00 | 0.32 | 0.00 | 97 | 1015.3 |
| 20260903073114 | 71 | 168 | 0.0 | 0.0 | 0.00 | 0.32 | 0.00 | 97 | 1015.3 |
| 20260903073012 | 71 | 168 | 0.0 | 0.0 | 0.00 | 0.32 | 0.00 | 97 | 1015.3 |
| 20260903072910 | 71 | 168 | 0.0 | 0.0 | 0.00 | 0.32 | 0.00 | 97 | 1015.2 |
| 20260903072548 | 71 | 168 | 0.0 | 0.0 | 0.00 | 0.32 | 0.00 | 97 | 1015.2 |
| 20260903072440 | 71 | 168 | 0.0 | 0.0 | 0.00 | 0.32 | 0.00 | 97 | 1015.1 |
| 20260903072333 | 71 | 168 | 0.0 | 0.0 | 0.00 | 0.32 | 0.00 | 96 | 1015.1 |
| 20260903072224 | 71 | 168 | 0.0 | 0.0 | 0.00 | 0.32 | 0.00 | 97 | 1015.1 |
| 20260903072120 | 71 | 168 | 0.0 | 0.0 | 0.00 | 0.32 | 0.00 | 96 | 1015.0 |
| 20260903072016 | 71 | 168 | 0.0 | 0.0 | 0.00 | 0.32 | 0.00 | 97 | 1015.1 |
| 20260903071914 | 71 | 168 | 0.0 | 0.0 | 0.00 | 0.32 | 0.00 | 97 | 1015.1 |
| 20260903071809 | 71 | 168 | 0.0 | 0.0 | 0.00 | 0.32 | 0.00 | 97 | 1015.1 |
| 20260903071707 | 71 | 168 | 0.0 | 0.0 | 0.00 | 0.32 | 0.00 | 97 | 1015.1 |
| 20260903071602 | 71 | 168 | 0.0 | 0.0 | 0.00 | 0.32 | 0.00 | 97 | 1015.2 |
| 20260903071457 | 71 | 168 | 0.0 | 0.0 | 0.00 | 0.32 | 0.00 | 97 | 1015.1 |
| 20260903071352 | 71 | 168 | 0.0 | 0.0 | 0.00 | 0.32 | 0.00 | 97 | 1015.2 |
| 20260903071246 | 71 | 168 | 0.0 | 0.0 | 0.00 | 0.32 | 0.00 | 97 | 1015.2 |
| 20260903071144 | 71 | 168 | 0.0 | 0.0 | 0.00 | 0.32 | 0.00 | 96 | 1015.2 |
| 20260903071040 | 71 | 168 | 0.0 | 0.0 | 0.00 | 0.32 | 0.00 | 97 | 1015.2 |
| 20260903070936 | 71 | 168 | 0.0 | 0.0 | 0.00 | 0.32 | 0.00 | 97 | 1015.2 |
| 20260903070833 | 71 | 168 | 0.0 | 0.0 | 0.00 | 0.32 | 0.00 | 97 | 1015.1 |
| 20260903070030 | 71 | 168 | 0.0 | 0.0 | 0.00 | 0.32 | 0.00 | 97 | 1015.1 |
| 20260903065923 | 71 | 168 | 0.0 | 0.0 | 0.00 | 0.32 | 0.00 | 96 | 1015.1 |
| 20260903065818 | 71 | 168 | 0.0 | 0.0 | 0.00 | 0.32 | 0.00 | 97 | 1015.1 |
| 20260903065454 | 71 | 168 | 0.0 | 0.0 | 0.00 | 0.32 | 0.00 | 97 | 1015.0 |
| 20260903065347 | 71 | 168 | 0.0 | 0.0 | 0.00 | 0.32 | 0.00 | 96 | 1015.0 |
| 20260903065245 | 71 | 168 | 0.0 | 0.0 | 0.00 | 0.32 | 0.00 | 96 | 1015.0 |
| 20260903065144 | 71 | 168 | 0.0 | 0.0 | 0.00 | 0.32 | 0.00 | 96 | 1015.1 |
| 20260903065040 | 71 | 168 | 0.0 | 0.0 | 0.00 | 0.32 | 0.00 | 97 | 1015.1 |
| 20260903064936 | 71 | 168 | 0.0 | 0.0 | 0.00 | 0.32 | 0.00 | 96 | 1015.1 |
| 20260903064831 | 71 | 168 | 0.0 | 0.0 | 0.00 | 0.32 | 0.00 | 96 | 1015.1 |
| 20260903064726 | 71 | 168 | 0.0 | 0.0 | 0.00 | 0.32 | 0.00 | 96 | 1015.1 |
| 20260903064623 | 71 | 168 | 0.0 | 0.0 | 0.00 | 0.32 | 0.00 | 96 | 1015.1 |
| 20260903064516 | 71 | 168 | 0.0 | 0.0 | 0.00 | 0.32 | 0.00 | 97 | 1015.1 |
| 20260903064412 | 71 | 168 | 0.0 | 1.0 | 0.00 | 0.32 | 0.00 | 96 | 1015.1 |
| 20260903064306 | 71 | 168 | 0.0 | 1.0 | 0.00 | 0.32 | 0.00 | 96 | 1015.1 |
| 20260903064203 | 71 | 168 | 0.0 | 1.0 | 0.00 | 0.32 | 0.00 | 96 | 1015.1 |
| 20260903064100 | 71 | 168 | 0.0 | 1.0 | 0.00 | 0.32 | 0.00 | 96 | 1015.1 |
| 20260903063954 | 71 | 168 | 0.0 | 1.0 | 0.00 | 0.32 | 0.00 | 96 | 1015.0 |
| 20260903063852 | 71 | 168 | 0.0 | 1.0 | 0.00 | 0.32 | 0.00 | 96 | 1015.0 |
| 20260903063745 | 71 | 168 | 0.0 | 1.0 | 0.00 | 0.32 | 0.00 | 96 | 1015.0 |
| 20260903063638 | 71 | 168 | 0.0 | 1.0 | 0.00 | 0.32 | 0.00 | 96 | 1015.0 |
| 20260903063536 | 71 | 168 | 0.0 | 0.0 | 0.00 | 0.32 | 0.00 | 96 | 1015.0 |
| 20260903063429 | 71 | 168 | 0.0 | 0.0 | 0.00 | 0.32 | 0.00 | 96 | 1015.1 |
| 20260903063326 | 71 | 168 | 0.0 | 0.0 | 0.00 | 0.32 | 0.00 | 96 | 1015.1 |
| 20260903063001 | 71 | 168 | 0.0 | 0.0 | 0.00 | 0.32 | 0.00 | 96 | 1015.2 |
| 20260903062854 | 71 | 168 | 0.0 | 0.0 | 0.00 | 0.32 | 0.00 | 96 | 1015.3 |
| 20260903062749 | 71 | 168 | 0.0 | 0.0 | 0.00 | 0.32 | 0.00 | 96 | 1015.3 |
| 20260903062643 | 71 | 168 | 0.0 | 0.0 | 0.00 | 0.32 | 0.00 | 96 | 1015.3 |
| 20260903062535 | 71 | 168 | 0.0 | 0.0 | 0.00 | 0.32 | 0.00 | 96 | 1015.3 |
| 20260903062432 | 71 | 168 | 0.0 | 0.0 | 0.00 | 0.32 | 0.00 | 96 | 1015.2 |
| 20260903062330 | 71 | 168 | 0.0 | 0.0 | 0.00 | 0.32 | 0.00 | 96 | 1015.3 |
| 20260903062226 | 71 | 168 | 0.0 | 0.0 | 0.00 | 0.32 | 0.00 | 96 | 1015.2 |
| 20260903062121 | 71 | 168 | 0.0 | 1.0 | 0.00 | 0.32 | 0.00 | 96 | 1015.2 |
| 20260903061536 | 71 | 168 | 0.0 | 1.0 | 0.00 | 0.32 | 0.00 | 96 | 1015.3 |
| 20260903061429 | 71 | 168 | 0.0 | 1.0 | 0.00 | 0.32 | 0.00 | 96 | 1015.3 |
| 20260903061327 | 71 | 168 | 0.0 | 1.0 | 0.00 | 0.32 | 0.00 | 96 | 1015.4 |
| 20260903061220 | 71 | 168 | 0.0 | 1.0 | 0.00 | 0.32 | 0.00 | 96 | 1015.4 |
| 20260903061115 | 71 | 168 | 0.0 | 0.0 | 0.00 | 0.32 | 0.00 | 96 | 1015.4 |
| 20260903061011 | 71 | 168 | 0.0 | 0.0 | 0.00 | 0.32 | 0.00 | 96 | 1015.4 |
| 20260903060648 | 71 | 168 | 0.0 | 1.0 | 0.00 | 0.32 | 0.00 | 96 | 1015.5 |
| 20260903060320 | 71 | 168 | 0.0 | 1.0 | 0.00 | 0.32 | 0.00 | 96 | 1015.5 |
| 20260903060216 | 71 | 168 | 0.0 | 1.0 | 0.00 | 0.32 | 0.00 | 96 | 1015.5 |
| 20260903060113 | 71 | 168 | 0.0 | 1.0 | 0.00 | 0.32 | 0.00 | 96 | 1015.5 |
| 20260903055747 | 71 | 168 | 0.0 | 0.0 | 0.00 | 0.32 | 0.00 | 96 | 1015.7 |
| 20260903055645 | 71 | 168 | 0.0 | 0.0 | 0.00 | 0.32 | 0.00 | 96 | 1015.7 |
| 20260903055540 | 71 | 168 | 0.0 | 0.0 | 0.00 | 0.32 | 0.00 | 96 | 1015.7 |
| 20260903055217 | 71 | 168 | 0.0 | 0.0 | 0.00 | 0.32 | 0.00 | 96 | 1015.8 |
| 20260903054852 | 71 | 168 | 0.0 | 0.0 | 0.00 | 0.32 | 0.00 | 96 | 1015.7 |
| 20260903054524 | 71 | 168 | 0.0 | 0.0 | 0.00 | 0.32 | 0.00 | 96 | 1015.9 |
| 20260903054419 | 71 | 168 | 0.0 | 0.0 | 0.00 | 0.32 | 0.00 | 96 | 1015.9 |
| 20260903054316 | 71 | 168 | 0.0 | 0.0 | 0.00 | 0.32 | 0.00 | 96 | 1015.9 |
| 20260903054211 | 71 | 168 | 0.0 | 0.0 | 0.00 | 0.32 | 0.00 | 96 | 1016.0 |
| 20260903054109 | 71 | 168 | 0.0 | 0.0 | 0.00 | 0.32 | 0.00 | 96 | 1016.0 |
| 20260903054001 | 71 | 168 | 0.0 | 0.0 | 0.00 | 0.32 | 0.00 | 96 | 1016.0 |
| 20260903053856 | 71 | 168 | 0.0 | 0.0 | 0.00 | 0.32 | 0.00 | 96 | 1016.0 |
| 20260903053753 | 71 | 168 | 0.0 | 0.0 | 0.00 | 0.32 | 0.00 | 96 | 1016.0 |
| 20260903053428 | 71 | 168 | 0.0 | 0.0 | 0.00 | 0.32 | 0.00 | 96 | 1016.0 |
| 20260903053322 | 71 | 168 | 0.0 | 0.0 | 0.00 | 0.32 | 0.00 | 96 | 1016.0 |
| 20260903053215 | 71 | 168 | 0.0 | 0.0 | 0.00 | 0.32 | 0.00 | 96 | 1016.0 |
| 20260903052852 | 71 | 168 | 0.0 | 0.0 | 0.00 | 0.32 | 0.00 | 96 | 1015.9 |
| 20260903052748 | 71 | 168 | 0.0 | 0.0 | 0.00 | 0.32 | 0.00 | 96 | 1015.9 |
| 20260903052644 | 71 | 168 | 0.0 | 0.0 | 0.00 | 0.32 | 0.00 | 96 | 1015.8 |
| 20260903052541 | 71 | 168 | 0.0 | 0.0 | 0.00 | 0.32 | 0.00 | 96 | 1015.9 |
| 20260903052436 | 71 | 168 | 0.0 | 0.0 | 0.00 | 0.32 | 0.00 | 96 | 1015.8 |
| 20260903052333 | 71 | 168 | 0.0 | 0.0 | 0.00 | 0.32 | 0.00 | 96 | 1015.8 |
| 20260903051751 | 71 | 168 | 0.0 | 0.0 | 0.00 | 0.32 | 0.00 | 96 | 1016.0 |
| 20260903051645 | 71 | 168 | 0.0 | 0.0 | 0.00 | 0.32 | 0.00 | 96 | 1016.0 |
| 20260903051543 | 71 | 168 | 0.0 | 0.0 | 0.00 | 0.32 | 0.00 | 96 | 1016.0 |
| 20260903051436 | 71 | 168 | 0.0 | 1.0 | 0.00 | 0.32 | 0.00 | 96 | 1016.0 |
| 20260903051333 | 71 | 168 | 0.0 | 1.0 | 0.00 | 0.32 | 0.00 | 96 | 1016.1 |
| 20260903051230 | 71 | 168 | 0.0 | 1.0 | 0.00 | 0.32 | 0.00 | 96 | 1016.1 |
| 20260903051128 | 71 | 168 | 0.0 | 1.0 | 0.00 | 0.32 | 0.00 | 96 | 1016.1 |
| 20260903051024 | 71 | 148 | 0.0 | 0.0 | 0.00 | 0.32 | 0.00 | 96 | 1016.1 |
| 20260903050922 | 71 | 148 | 0.0 | 0.0 | 0.00 | 0.32 | 0.00 | 96 | 1016.1 |
| 20260903050814 | 71 | 148 | 0.0 | 0.0 | 0.00 | 0.32 | 0.00 | 96 | 1016.1 |
| 20260903050711 | 71 | 148 | 0.0 | 0.0 | 0.00 | 0.32 | 0.00 | 96 | 1016.1 |
| 20260903050605 | 71 | 148 | 0.0 | 0.0 | 0.00 | 0.32 | 0.00 | 96 | 1016.1 |
| 20260903050456 | 71 | 148 | 0.0 | 0.0 | 0.00 | 0.32 | 0.00 | 96 | 1016.1 |
| 20260903050353 | 71 | 148 | 0.0 | 0.0 | 0.00 | 0.32 | 0.00 | 96 | 1016.1 |
| 20260903050249 | 71 | 148 | 0.0 | 0.0 | 0.00 | 0.32 | 0.00 | 96 | 1016.1 |
| 20260903050144 | 71 | 148 | 0.0 | 0.0 | 0.00 | 0.32 | 0.00 | 96 | 1016.1 |
| 20260903050040 | 71 | 148 | 0.0 | 0.0 | 0.00 | 0.32 | 0.00 | 96 | 1016.1 |
| 20260903045938 | 71 | 148 | 0.0 | 0.0 | 0.00 | 0.32 | 0.00 | 96 | 1016.1 |
| 20260903045835 | 71 | 148 | 0.0 | 0.0 | 0.00 | 0.32 | 0.00 | 96 | 1016.1 |
| 20260903045731 | 71 | 148 | 0.0 | 0.0 | 0.00 | 0.32 | 0.00 | 96 | 1016.2 |
| 20260903044918 | 71 | 148 | 0.0 | 0.0 | 0.00 | 0.32 | 0.00 | 96 | 1016.1 |
| 20260903044813 | 71 | 148 | 0.0 | 0.0 | 0.00 | 0.32 | 0.00 | 96 | 1016.1 |
| 20260903044707 | 71 | 148 | 0.0 | 0.0 | 0.00 | 0.32 | 0.00 | 96 | 1016.1 |
| 20260903044603 | 71 | 148 | 0.0 | 0.0 | 0.00 | 0.32 | 0.00 | 96 | 1016.1 |
| 20260903044458 | 71 | 148 | 0.0 | 0.0 | 0.00 | 0.32 | 0.00 | 96 | 1016.1 |
| 20260903044351 | 71 | 148 | 0.0 | 0.0 | 0.00 | 0.32 | 0.00 | 96 | 1016.1 |
| 20260903044249 | 71 | 148 | 0.0 | 0.0 | 0.00 | 0.32 | 0.00 | 96 | 1016.2 |
| 20260903044142 | 71 | 148 | 0.0 | 0.0 | 0.00 | 0.32 | 0.00 | 96 | 1016.2 |
| 20260903044036 | 71 | 148 | 0.0 | 0.0 | 0.00 | 0.32 | 0.00 | 96 | 1016.2 |
| 20260903043933 | 71 | 148 | 0.0 | 0.0 | 0.00 | 0.32 | 0.00 | 96 | 1016.2 |
| 20260903043831 | 71 | 148 | 0.0 | 0.0 | 0.00 | 0.32 | 0.00 | 96 | 1016.3 |
| 20260903043728 | 71 | 148 | 0.0 | 0.0 | 0.00 | 0.32 | 0.00 | 96 | 1016.3 |
| 20260903043622 | 71 | 148 | 0.0 | 0.0 | 0.00 | 0.32 | 0.00 | 96 | 1016.3 |
| 20260903043516 | 71 | 148 | 0.0 | 0.0 | 0.00 | 0.32 | 0.00 | 96 | 1016.2 |
| 20260903043409 | 71 | 148 | 0.0 | 0.0 | 0.00 | 0.32 | 0.00 | 96 | 1016.2 |
| 20260903043307 | 71 | 148 | 0.0 | 0.0 | 0.00 | 0.32 | 0.00 | 96 | 1016.2 |
| 20260903043203 | 71 | 148 | 0.0 | 0.0 | 0.00 | 0.32 | 0.00 | 96 | 1016.2 |
| 20260903043100 | 71 | 148 | 0.0 | 0.0 | 0.00 | 0.32 | 0.00 | 96 | 1016.1 |
| 20260903042954 | 71 | 148 | 0.0 | 0.0 | 0.00 | 0.32 | 0.00 | 96 | 1016.0 |
| 20260903042847 | 71 | 148 | 0.0 | 0.0 | 0.00 | 0.32 | 0.00 | 96 | 1016.1 |
| 20260903042524 | 71 | 148 | 0.0 | 0.0 | 0.00 | 0.32 | 0.00 | 96 | 1016.0 |
| 20260903042421 | 71 | 148 | 0.0 | 0.0 | 0.00 | 0.32 | 0.00 | 96 | 1016.1 |
| 20260903042314 | 71 | 148 | 0.0 | 0.0 | 0.00 | 0.32 | 0.00 | 96 | 1016.1 |
| 20260903042212 | 71 | 148 | 0.0 | 0.0 | 0.00 | 0.32 | 0.00 | 96 | 1016.1 |
| 20260903042106 | 71 | 148 | 0.0 | 0.0 | 0.00 | 0.32 | 0.00 | 96 | 1016.1 |
| 20260903042003 | 71 | 148 | 0.0 | 0.0 | 0.00 | 0.32 | 0.00 | 96 | 1016.1 |
| 20260903041900 | 71 | 148 | 0.0 | 0.0 | 0.00 | 0.32 | 0.00 | 96 | 1016.1 |
| 20260903041757 | 71 | 148 | 0.0 | 0.0 | 0.00 | 0.32 | 0.00 | 96 | 1016.0 |
| 20260903041213 | 71 | 148 | 0.0 | 0.0 | 0.00 | 0.32 | 0.00 | 96 | 1016.0 |
| 20260903041109 | 71 | 148 | 0.0 | 0.0 | 0.00 | 0.32 | 0.00 | 96 | 1016.0 |
| 20260903041004 | 71 | 148 | 0.0 | 0.0 | 0.00 | 0.32 | 0.00 | 96 | 1016.0 |
| 20260903040857 | 71 | 148 | 0.0 | 0.0 | 0.00 | 0.32 | 0.00 | 96 | 1016.0 |
| 20260903040750 | 71 | 148 | 0.0 | 0.0 | 0.00 | 0.32 | 0.00 | 96 | 1016.0 |
| 20260903040426 | 71 | 148 | 0.0 | 0.0 | 0.00 | 0.32 | 0.00 | 96 | 1016.0 |
| 20260903040324 | 71 | 148 | 0.0 | 0.0 | 0.00 | 0.32 | 0.00 | 96 | 1015.9 |
| 20260903040217 | 71 | 148 | 0.0 | 0.0 | 0.00 | 0.32 | 0.00 | 96 | 1015.9 |
| 20260903040113 | 71 | 148 | 0.0 | 0.0 | 0.00 | 0.32 | 0.00 | 96 | 1015.9 |
| 20260903040009 | 71 | 148 | 0.0 | 0.0 | 0.00 | 0.32 | 0.00 | 96 | 1016.0 |
| 20260903035901 | 71 | 148 | 0.0 | 0.0 | 0.00 | 0.32 | 0.32 | 96 | 1016.0 |
| 20260903035755 | 71 | 148 | 0.0 | 0.0 | 0.00 | 0.32 | 0.32 | 96 | 1016.0 |
| 20260903035428 | 71 | 148 | 0.0 | 0.0 | 0.00 | 0.32 | 0.32 | 96 | 1016.0 |
| 20260903035326 | 71 | 148 | 0.0 | 0.0 | 0.00 | 0.32 | 0.32 | 96 | 1016.0 |
| 20260903035218 | 71 | 148 | 0.0 | 0.0 | 0.00 | 0.32 | 0.32 | 96 | 1016.0 |
| 20260903035111 | 71 | 148 | 0.0 | 0.0 | 0.00 | 0.32 | 0.32 | 96 | 1016.0 |
| 20260903035005 | 71 | 148 | 0.0 | 0.0 | 0.00 | 0.32 | 0.32 | 96 | 1016.0 |
| 20260903034430 | 71 | 148 | 0.0 | 0.0 | 0.00 | 0.32 | 0.32 | 95 | 1016.0 |
| 20260903034328 | 71 | 148 | 0.0 | 0.0 | 0.00 | 0.32 | 0.32 | 95 | 1016.1 |
| 20260903034226 | 71 | 148 | 0.0 | 0.0 | 0.00 | 0.32 | 0.32 | 95 | 1016.1 |
| 20260903034120 | 71 | 148 | 0.0 | 0.0 | 0.00 | 0.32 | 0.32 | 95 | 1016.1 |
| 20260903034017 | 71 | 148 | 0.0 | 0.0 | 0.00 | 0.32 | 0.32 | 95 | 1016.1 |
| 20260903033912 | 71 | 148 | 0.0 | 0.0 | 0.00 | 0.32 | 0.32 | 95 | 1016.1 |
| 20260903033805 | 71 | 148 | 0.0 | 0.0 | 0.00 | 0.32 | 0.32 | 95 | 1016.1 |
| 20260903033703 | 71 | 148 | 0.0 | 0.0 | 0.00 | 0.32 | 0.32 | 95 | 1016.1 |
| 20260903033555 | 71 | 148 | 0.0 | 0.0 | 0.00 | 0.32 | 0.32 | 95 | 1016.1 |
| 20260903033230 | 71 | 148 | 0.0 | 0.0 | 0.00 | 0.32 | 0.32 | 95 | 1016.1 |
| 20260903033123 | 71 | 148 | 0.0 | 0.0 | 0.00 | 0.32 | 0.32 | 95 | 1016.2 |
| 20260903033020 | 71 | 148 | 0.0 | 0.0 | 0.00 | 0.32 | 0.32 | 95 | 1016.1 |
| 20260903032915 | 71 | 148 | 0.0 | 0.0 | 0.00 | 0.32 | 0.32 | 95 | 1016.1 |
| 20260903032812 | 71 | 148 | 0.0 | 0.0 | 0.00 | 0.32 | 0.32 | 95 | 1016.1 |
| 20260903032708 | 71 | 148 | 0.0 | 0.0 | 0.00 | 0.32 | 0.32 | 95 | 1016.1 |
| 20260903032605 | 71 | 148 | 0.0 | 0.0 | 0.00 | 0.32 | 0.32 | 95 | 1016.1 |
| 20260903032503 | 71 | 148 | 0.0 | 0.0 | 0.00 | 0.32 | 0.32 | 95 | 1016.1 |
| 20260903032356 | 71 | 148 | 0.0 | 0.0 | 0.00 | 0.32 | 0.32 | 95 | 1016.1 |
| 20260903032030 | 71 | 148 | 0.0 | 0.0 | 0.00 | 0.32 | 0.32 | 95 | 1016.1 |
| 20260903031928 | 71 | 148 | 0.0 | 0.0 | 0.00 | 0.32 | 0.32 | 95 | 1016.0 |
| 20260903031824 | 71 | 148 | 0.0 | 0.0 | 0.00 | 0.32 | 0.32 | 95 | 1016.0 |
| 20260903031721 | 71 | 148 | 0.0 | 0.0 | 0.00 | 0.32 | 0.32 | 95 | 1016.0 |
| 20260903031352 | 71 | 148 | 0.0 | 0.0 | 0.00 | 0.32 | 0.32 | 95 | 1016.0 |
| 20260903031023 | 71 | 148 | 0.0 | 0.0 | 0.00 | 0.32 | 0.32 | 95 | 1015.9 |
| 20260903030658 | 71 | 148 | 0.0 | 0.0 | 0.00 | 0.32 | 0.32 | 95 | 1015.9 |
| 20260903030556 | 71 | 148 | 0.0 | 0.0 | 0.00 | 0.32 | 0.32 | 95 | 1016.0 |
| 20260903025749 | 71 | 148 | 0.0 | 0.0 | 0.00 | 0.32 | 0.32 | 95 | 1016.0 |
| 20260903025646 | 71 | 148 | 0.0 | 0.0 | 0.00 | 0.32 | 0.32 | 95 | 1016.0 |
| 20260903025540 | 72 | 148 | 0.0 | 0.0 | 0.00 | 0.32 | 0.32 | 95 | 1016.0 |
| 20260903025434 | 71 | 148 | 0.0 | 0.0 | 0.00 | 0.32 | 0.32 | 95 | 1015.9 |
| 20260903025331 | 72 | 148 | 0.0 | 0.0 | 0.00 | 0.32 | 0.32 | 95 | 1015.9 |
| 20260903025227 | 72 | 148 | 0.0 | 0.0 | 0.00 | 0.32 | 0.32 | 95 | 1016.0 |
| 20260903025121 | 72 | 148 | 0.0 | 0.0 | 0.00 | 0.32 | 0.32 | 95 | 1016.0 |
| 20260903025019 | 72 | 148 | 0.0 | 0.0 | 0.00 | 0.32 | 0.32 | 95 | 1016.0 |
| 20260903024913 | 72 | 148 | 0.0 | 0.0 | 0.00 | 0.32 | 0.32 | 95 | 1016.0 |
| 20260903024808 | 72 | 148 | 0.0 | 0.0 | 0.00 | 0.32 | 0.32 | 95 | 1016.0 |
| 20260903024706 | 72 | 148 | 0.0 | 0.0 | 0.00 | 0.32 | 0.32 | 95 | 1016.0 |
| 20260903024601 | 72 | 148 | 0.0 | 0.0 | 0.00 | 0.32 | 0.32 | 95 | 1016.0 |
| 20260903024454 | 72 | 148 | 0.0 | 0.0 | 0.00 | 0.32 | 0.32 | 95 | 1016.0 |
| 20260903024347 | 72 | 148 | 0.0 | 0.0 | 0.00 | 0.32 | 0.32 | 95 | 1016.0 |
| 20260903024241 | 72 | 148 | 0.0 | 0.0 | 0.00 | 0.32 | 0.32 | 95 | 1015.9 |
| 20260903023916 | 72 | 148 | 0.0 | 0.0 | 0.00 | 0.32 | 0.32 | 95 | 1015.9 |
| 20260903023812 | 72 | 148 | 0.0 | 0.0 | 0.00 | 0.32 | 0.32 | 95 | 1016.0 |
| 20260903023707 | 72 | 148 | 0.0 | 0.0 | 0.00 | 0.32 | 0.32 | 95 | 1015.9 |
| 20260903023602 | 72 | 148 | 0.0 | 0.0 | 0.00 | 0.32 | 0.32 | 95 | 1015.9 |
| 20260903023456 | 72 | 148 | 0.0 | 0.0 | 0.00 | 0.32 | 0.32 | 95 | 1015.9 |
| 20260903023348 | 72 | 148 | 0.0 | 0.0 | 0.00 | 0.32 | 0.32 | 95 | 1015.9 |
| 20260903023020 | 72 | 148 | 0.0 | 0.0 | 0.00 | 0.32 | 0.32 | 95 | 1015.8 |
| 20260903022435 | 72 | 148 | 0.0 | 0.0 | 0.00 | 0.32 | 0.32 | 95 | 1015.9 |
| 20260903022329 | 72 | 148 | 0.0 | 0.0 | 0.00 | 0.32 | 0.32 | 95 | 1015.8 |
| 20260903022222 | 72 | 148 | 0.0 | 0.0 | 0.00 | 0.32 | 0.32 | 95 | 1015.8 |
| 20260903022119 | 72 | 148 | 0.0 | 0.0 | 0.00 | 0.32 | 0.32 | 95 | 1015.8 |
| 20260903022013 | 72 | 148 | 0.0 | 0.0 | 0.00 | 0.32 | 0.32 | 95 | 1015.8 |
| 20260903021910 | 72 | 148 | 0.0 | 0.0 | 0.00 | 0.32 | 0.32 | 95 | 1015.8 |
| 20260903021546 | 72 | 148 | 0.0 | 0.0 | 0.00 | 0.32 | 0.32 | 95 | 1015.7 |
| 20260903021442 | 72 | 148 | 0.0 | 0.0 | 0.00 | 0.32 | 0.32 | 95 | 1015.7 |
| 20260903021336 | 72 | 148 | 0.0 | 0.0 | 0.00 | 0.32 | 0.32 | 95 | 1015.7 |
| 20260903021230 | 72 | 148 | 0.0 | 0.0 | 0.00 | 0.32 | 0.32 | 95 | 1015.7 |
| 20260903021122 | 72 | 148 | 0.0 | 0.0 | 0.00 | 0.32 | 0.32 | 95 | 1015.7 |
| 20260903020755 | 72 | 148 | 0.0 | 0.0 | 0.00 | 0.32 | 0.32 | 95 | 1015.7 |
| 20260903020433 | 72 | 148 | 0.0 | 0.0 | 0.00 | 0.32 | 0.32 | 95 | 1015.6 |
| 20260903020327 | 72 | 148 | 0.0 | 0.0 | 0.00 | 0.32 | 0.32 | 95 | 1015.6 |
| 20260903020222 | 72 | 148 | 0.0 | 0.0 | 0.00 | 0.32 | 0.32 | 95 | 1015.7 |
| 20260903020114 | 72 | 148 | 0.0 | 0.0 | 0.00 | 0.32 | 0.32 | 95 | 1015.7 |
| 20260903020010 | 72 | 148 | 0.0 | 0.0 | 0.00 | 0.32 | 0.32 | 95 | 1015.7 |
| 20260903015903 | 72 | 148 | 0.0 | 0.0 | 0.00 | 0.32 | 0.32 | 95 | 1015.7 |
| 20260903015758 | 72 | 148 | 0.0 | 0.0 | 0.00 | 0.32 | 0.32 | 95 | 1015.7 |
| 20260903015653 | 72 | 148 | 0.0 | 0.0 | 0.00 | 0.32 | 0.32 | 95 | 1015.7 |
| 20260903015547 | 72 | 148 | 0.0 | 0.0 | 0.00 | 0.32 | 0.32 | 95 | 1015.7 |
| 20260903015444 | 72 | 148 | 0.0 | 0.0 | 0.00 | 0.32 | 0.32 | 95 | 1015.7 |
| 20260903015339 | 73 | 148 | 0.0 | 0.0 | 0.00 | 0.32 | 0.32 | 95 | 1015.8 |
| 20260903015231 | 73 | 153 | 0.0 | 0.0 | 0.00 | 0.32 | 0.32 | 95 | 1015.8 |
| 20260903015125 | 73 | 153 | 0.0 | 0.0 | 0.00 | 0.32 | 0.32 | 95 | 1015.8 |
| 20260903014803 | 73 | 153 | 0.0 | 0.0 | 0.00 | 0.32 | 0.32 | 95 | 1015.7 |
| 20260903014700 | 73 | 153 | 0.0 | 0.0 | 0.00 | 0.32 | 0.32 | 95 | 1015.8 |
| 20260903014554 | 73 | 153 | 0.0 | 0.0 | 0.00 | 0.32 | 0.32 | 95 | 1015.8 |
| 20260903014449 | 73 | 153 | 0.0 | 0.0 | 0.00 | 0.32 | 0.32 | 95 | 1015.8 |
| 20260903014124 | 73 | 153 | 0.0 | 0.0 | 0.00 | 0.32 | 0.32 | 95 | 1016.0 |
| 20260903014019 | 73 | 153 | 0.0 | 0.0 | 0.00 | 0.32 | 0.32 | 95 | 1016.0 |
| 20260903013911 | 73 | 153 | 0.0 | 0.0 | 0.00 | 0.32 | 0.32 | 95 | 1016.0 |
| 20260903013809 | 73 | 153 | 0.0 | 0.0 | 0.00 | 0.32 | 0.32 | 95 | 1016.0 |
| 20260903013447 | 73 | 153 | 0.0 | 1.0 | 0.00 | 0.32 | 0.32 | 95 | 1016.0 |
| 20260903013344 | 73 | 153 | 0.0 | 1.0 | 0.00 | 0.32 | 0.32 | 95 | 1016.1 |
| 20260903013239 | 73 | 153 | 0.0 | 1.0 | 0.00 | 0.32 | 0.32 | 95 | 1016.1 |
| 20260903013137 | 73 | 153 | 0.0 | 1.0 | 0.00 | 0.32 | 0.32 | 95 | 1016.1 |
| 20260903013033 | 73 | 217 | 0.0 | 1.0 | 0.00 | 0.32 | 0.32 | 95 | 1016.1 |
| 20260903012930 | 73 | 217 | 0.0 | 1.0 | 0.00 | 0.32 | 0.32 | 95 | 1016.1 |
| 20260903012827 | 73 | 217 | 0.0 | 0.0 | 0.00 | 0.32 | 0.32 | 95 | 1016.1 |
| 20260903012721 | 73 | 92 | 0.0 | 0.0 | 0.00 | 0.32 | 0.32 | 95 | 1016.1 |
| 20260903012617 | 73 | 92 | 0.0 | 0.0 | 0.00 | 0.32 | 0.32 | 95 | 1016.1 |
| 20260903012511 | 73 | 92 | 0.0 | 0.0 | 0.00 | 0.32 | 0.32 | 95 | 1016.1 |
| 20260903012405 | 73 | 92 | 0.0 | 0.0 | 0.00 | 0.32 | 0.32 | 95 | 1016.1 |
| 20260903012041 | 73 | 92 | 0.0 | 0.0 | 0.00 | 0.32 | 0.32 | 95 | 1016.1 |
| 20260903011938 | 73 | 92 | 0.0 | 0.0 | 0.00 | 0.32 | 0.32 | 95 | 1016.2 |
| 20260903011832 | 73 | 92 | 0.0 | 0.0 | 0.00 | 0.32 | 0.32 | 95 | 1016.2 |
| 20260903011725 | 73 | 92 | 0.0 | 0.0 | 0.00 | 0.32 | 0.32 | 95 | 1016.2 |
| 20260903011622 | 73 | 92 | 0.0 | 0.0 | 0.00 | 0.32 | 0.32 | 95 | 1016.2 |
| 20260903011255 | 73 | 92 | 0.0 | 1.0 | 0.00 | 0.32 | 0.32 | 95 | 1016.2 |
| 20260903010928 | 73 | 63 | 0.0 | 1.0 | 0.00 | 0.32 | 0.32 | 95 | 1016.3 |
| 20260903010821 | 73 | 63 | 0.0 | 1.0 | 0.00 | 0.32 | 0.32 | 95 | 1016.3 |
| 20260903010717 | 73 | 63 | 0.0 | 0.0 | 0.00 | 0.32 | 0.32 | 95 | 1016.3 |
| 20260903010614 | 73 | 63 | 0.0 | 0.0 | 0.00 | 0.32 | 0.32 | 95 | 1016.3 |
| 20260903010507 | 73 | 63 | 0.0 | 0.0 | 0.00 | 0.32 | 0.32 | 95 | 1016.3 |
| 20260903010400 | 73 | 63 | 0.0 | 0.0 | 0.00 | 0.32 | 0.32 | 95 | 1016.3 |
| 20260903010258 | 73 | 63 | 0.0 | 0.0 | 0.00 | 0.32 | 0.32 | 95 | 1016.3 |
| 20260903010155 | 73 | 63 | 0.0 | 0.0 | 0.00 | 0.32 | 0.32 | 95 | 1016.3 |
| 20260903010050 | 73 | 63 | 0.0 | 0.0 | 0.00 | 0.32 | 0.32 | 95 | 1016.2 |
| 20260903005945 | 73 | 63 | 0.0 | 0.0 | 0.00 | 0.32 | 0.32 | 95 | 1016.2 |
| 20260903005616 | 74 | 63 | 0.0 | 0.0 | 0.00 | 0.32 | 0.32 | 95 | 1016.2 |
| 20260903005509 | 74 | 63 | 0.0 | 0.0 | 0.00 | 0.32 | 0.32 | 95 | 1016.2 |
| 20260903005407 | 74 | 63 | 0.0 | 0.0 | 0.00 | 0.32 | 0.32 | 95 | 1016.2 |
| 20260903005306 | 74 | 63 | 0.0 | 0.0 | 0.00 | 0.32 | 0.32 | 95 | 1016.2 |
| 20260903005156 | 74 | 63 | 0.0 | 0.0 | 0.00 | 0.32 | 0.32 | 95 | 1016.3 |
| 20260903005049 | 74 | 63 | 0.0 | 0.0 | 0.00 | 0.32 | 0.32 | 95 | 1016.2 |
| 20260903004942 | 74 | 63 | 0.0 | 0.0 | 0.00 | 0.32 | 0.32 | 95 | 1016.2 |
| 20260903004835 | 74 | 63 | 0.0 | 0.0 | 0.00 | 0.32 | 0.32 | 95 | 1016.2 |
| 20260903004728 | 74 | 63 | 0.0 | 0.0 | 0.00 | 0.32 | 0.32 | 95 | 1016.2 |
| 20260903004626 | 74 | 63 | 0.0 | 0.0 | 0.00 | 0.32 | 0.32 | 95 | 1016.2 |
| 20260903004521 | 74 | 63 | 0.0 | 0.0 | 0.00 | 0.32 | 0.32 | 95 | 1016.1 |
| 20260903004415 | 74 | 63 | 0.0 | 0.0 | 0.00 | 0.32 | 0.32 | 95 | 1016.2 |
| 20260903004312 | 74 | 63 | 0.0 | 0.0 | 0.00 | 0.32 | 0.32 | 95 | 1016.2 |
| 20260903004205 | 74 | 63 | 0.0 | 0.0 | 0.00 | 0.32 | 0.32 | 95 | 1016.2 |
| 20260903003616 | 74 | 63 | 0.0 | 1.0 | 0.00 | 0.32 | 0.32 | 95 | 1016.2 |
| 20260903003246 | 74 | 63 | 0.0 | 0.0 | 0.00 | 0.32 | 0.32 | 95 | 1016.3 |
| 20260903003144 | 74 | 63 | 0.0 | 0.0 | 0.00 | 0.32 | 0.32 | 95 | 1016.3 |
| 20260903002815 | 74 | 63 | 0.0 | 0.0 | 0.00 | 0.32 | 0.32 | 95 | 1016.4 |
| 20260903002454 | 74 | 63 | 0.0 | 0.0 | 0.00 | 0.32 | 0.32 | 95 | 1016.5 |
| 20260903002348 | 74 | 63 | 0.0 | 0.0 | 0.00 | 0.32 | 0.32 | 95 | 1016.5 |
| 20260903002241 | 74 | 63 | 0.0 | 0.0 | 0.00 | 0.32 | 0.32 | 95 | 1016.5 |
| 20260903002135 | 74 | 63 | 0.0 | 0.0 | 0.00 | 0.32 | 0.32 | 95 | 1016.5 |
| 20260903002028 | 74 | 63 | 0.0 | 0.0 | 0.00 | 0.32 | 0.32 | 95 | 1016.5 |
| 20260903001921 | 74 | 63 | 0.0 | 0.0 | 0.00 | 0.32 | 0.32 | 95 | 1016.5 |
| 20260903001815 | 74 | 63 | 0.0 | 0.0 | 0.00 | 0.32 | 0.32 | 95 | 1016.5 |
| 20260903001456 | 74 | 63 | 0.0 | 0.0 | 0.00 | 0.32 | 0.32 | 95 | 1016.7 |
| 20260903001128 | 74 | 63 | 0.0 | 0.0 | 0.00 | 0.32 | 0.32 | 95 | 1016.7 |
| 20260903001023 | 74 | 63 | 0.0 | 0.0 | 0.00 | 0.32 | 0.32 | 95 | 1016.7 |
| 20260903000915 | 74 | 63 | 0.0 | 0.0 | 0.00 | 0.32 | 0.32 | 95 | 1016.6 |
| 20260903000808 | 74 | 63 | 0.0 | 0.0 | 0.00 | 0.32 | 0.32 | 95 | 1016.6 |
| 20260903000703 | 75 | 63 | 0.0 | 0.0 | 0.00 | 0.32 | 0.32 | 95 | 1016.6 |
| 20260903000342 | 75 | 63 | 0.0 | 0.0 | 0.00 | 0.32 | 0.32 | 95 | 1016.6 |
| 20260903000234 | 75 | 63 | 0.0 | 0.0 | 0.00 | 0.32 | 0.32 | 95 | 1016.7 |
| 20260903000132 | 75 | 63 | 0.0 | 1.0 | 0.00 | 0.32 | 0.32 | 95 | 1016.7 |
| 20260903000024 | 75 | 63 | 0.0 | 1.0 | 0.00 | 0.32 | 0.32 | 95 | 1016.7 |
| 20260902235920 | 75 | 63 | 0.0 | 0.0 | 0.00 | 0.32 | 0.32 | 95 | 1016.7 |
| 20260902235815 | 75 | 63 | 0.0 | 0.0 | 0.00 | 0.32 | 0.32 | 95 | 1016.6 |
| 20260902235452 | 75 | 63 | 0.0 | 0.0 | 0.00 | 0.32 | 0.32 | 95 | 1016.5 |
| 20260902235350 | 75 | 63 | 0.0 | 0.0 | 0.00 | 0.32 | 0.32 | 95 | 1016.5 |
| 20260902235246 | 75 | 63 | 0.0 | 0.0 | 0.00 | 0.32 | 0.32 | 95 | 1016.5 |
| 20260902235139 | 75 | 63 | 0.0 | 0.0 | 0.00 | 0.32 | 0.32 | 95 | 1016.5 |
| 20260902235033 | 75 | 63 | 0.0 | 0.0 | 0.00 | 0.32 | 0.32 | 95 | 1016.5 |
| 20260902234930 | 75 | 63 | 0.0 | 0.0 | 0.00 | 0.32 | 0.32 | 95 | 1016.5 |
| 20260902234822 | 75 | 63 | 0.0 | 0.0 | 0.00 | 0.32 | 0.32 | 95 | 1016.5 |
| 20260902234717 | 75 | 63 | 0.0 | 0.0 | 0.00 | 0.32 | 0.32 | 95 | 1016.5 |
| 20260902234611 | 75 | 63 | 0.0 | 0.0 | 0.00 | 0.32 | 0.32 | 95 | 1016.5 |
| 20260902234507 | 75 | 63 | 0.0 | 0.0 | 0.00 | 0.32 | 0.32 | 95 | 1016.4 |
| 20260902234401 | 75 | 63 | 0.0 | 0.0 | 0.00 | 0.32 | 0.32 | 95 | 1016.4 |
| 20260902234255 | 75 | 63 | 0.0 | 0.0 | 0.00 | 0.32 | 0.32 | 95 | 1016.4 |
| 20260902234151 | 75 | 63 | 0.0 | 0.0 | 0.00 | 0.32 | 0.32 | 95 | 1016.4 |
| 20260902233824 | 75 | 63 | 0.0 | 0.0 | 0.00 | 0.32 | 0.32 | 95 | 1016.4 |
| 20260902233719 | 75 | 63 | 0.0 | 0.0 | 0.00 | 0.32 | 0.32 | 95 | 1016.4 |
| 20260902233353 | 75 | 63 | 0.0 | 0.0 | 0.00 | 0.32 | 0.32 | 95 | 1016.3 |
| 20260902233251 | 75 | 63 | 0.0 | 0.0 | 0.00 | 0.32 | 0.32 | 95 | 1016.3 |
| 20260902232928 | 75 | 63 | 0.0 | 0.0 | 0.00 | 0.32 | 0.32 | 95 | 1016.2 |
| 20260902232603 | 75 | 63 | 0.0 | 0.0 | 0.00 | 0.32 | 0.32 | 95 | 1016.2 |
| 20260902232455 | 75 | 63 | 0.0 | 0.0 | 0.00 | 0.32 | 0.32 | 95 | 1016.3 |
| 20260902232350 | 75 | 63 | 0.0 | 0.0 | 0.00 | 0.32 | 0.32 | 95 | 1016.2 |
| 20260902232244 | 75 | 63 | 0.0 | 0.0 | 0.00 | 0.32 | 0.32 | 95 | 1016.3 |
| 20260902232141 | 75 | 63 | 0.0 | 0.0 | 0.00 | 0.32 | 0.32 | 95 | 1016.3 |
| 20260902232035 | 75 | 63 | 0.0 | 0.0 | 0.00 | 0.32 | 0.32 | 95 | 1016.3 |
| 20260902231709 | 75 | 63 | 0.0 | 0.0 | 0.00 | 0.32 | 0.32 | 95 | 1016.2 |
| 20260902231603 | 75 | 63 | 0.0 | 0.0 | 0.00 | 0.32 | 0.32 | 95 | 1016.2 |
| 20260902231459 | 75 | 63 | 0.0 | 0.0 | 0.00 | 0.32 | 0.32 | 95 | 1016.3 |
| 20260902231358 | 75 | 63 | 0.0 | 0.0 | 0.00 | 0.32 | 0.32 | 95 | 1016.3 |
| 20260902231255 | 76 | 63 | 0.0 | 0.0 | 0.00 | 0.32 | 0.32 | 95 | 1016.3 |
| 20260902231153 | 75 | 63 | 0.0 | 0.0 | 0.00 | 0.32 | 0.32 | 95 | 1016.3 |
| 20260902231046 | 76 | 63 | 0.0 | 0.0 | 0.00 | 0.32 | 0.32 | 95 | 1016.4 |
| 20260902230940 | 76 | 63 | 0.0 | 0.0 | 0.00 | 0.32 | 0.32 | 95 | 1016.4 |
| 20260902230836 | 76 | 63 | 0.0 | 0.0 | 0.00 | 0.32 | 0.32 | 95 | 1016.5 |
| 20260902230730 | 76 | 63 | 0.0 | 0.0 | 0.00 | 0.32 | 0.32 | 95 | 1016.5 |
| 20260902230623 | 76 | 63 | 0.0 | 0.0 | 0.00 | 0.32 | 0.32 | 95 | 1016.5 |
| 20260902230516 | 76 | 63 | 0.0 | 0.0 | 0.00 | 0.32 | 0.32 | 95 | 1016.5 |
| 20260902230409 | 76 | 63 | 0.0 | 0.0 | 0.00 | 0.32 | 0.32 | 95 | 1016.6 |
| 20260902230305 | 76 | 63 | 0.0 | 0.0 | 0.00 | 0.32 | 0.32 | 95 | 1016.6 |
| 20260902230158 | 76 | 63 | 0.0 | 0.0 | 0.00 | 0.32 | 0.32 | 95 | 1016.6 |
| 20260902230054 | 76 | 63 | 0.0 | 0.0 | 0.00 | 0.32 | 0.32 | 95 | 1016.7 |
| 20260902225951 | 76 | 63 | 0.0 | 0.0 | 0.00 | 0.32 | 0.32 | 95 | 1016.6 |
| 20260902225846 | 76 | 63 | 0.0 | 0.0 | 0.00 | 0.32 | 0.32 | 95 | 1016.7 |
| 20260902225738 | 76 | 63 | 0.0 | 0.0 | 0.00 | 0.32 | 0.32 | 95 | 1016.7 |
| 20260902225635 | 76 | 63 | 0.0 | 0.0 | 0.00 | 0.32 | 0.32 | 95 | 1016.7 |
| 20260902225311 | 76 | 63 | 0.0 | 0.0 | 0.00 | 0.32 | 0.32 | 95 | 1016.9 |
| 20260902225207 | 76 | 63 | 0.0 | 0.0 | 0.00 | 0.32 | 0.32 | 95 | 1017.0 |
| 20260902225104 | 76 | 63 | 0.0 | 0.0 | 0.00 | 0.32 | 0.32 | 95 | 1017.1 |
| 20260902224959 | 76 | 63 | 0.0 | 0.0 | 0.00 | 0.32 | 0.32 | 95 | 1017.1 |
| 20260902224851 | 76 | 63 | 0.0 | 1.0 | 0.00 | 0.32 | 0.32 | 95 | 1017.1 |
| 20260902224745 | 76 | 63 | 0.0 | 1.0 | 0.00 | 0.32 | 0.32 | 95 | 1017.0 |
| 20260902224640 | 76 | 63 | 0.0 | 1.0 | 0.00 | 0.32 | 0.32 | 95 | 1017.0 |
| 20260902224533 | 76 | 63 | 0.0 | 1.0 | 0.00 | 0.32 | 0.32 | 95 | 1016.9 |
| 20260902224427 | 76 | 63 | 0.0 | 0.0 | 0.00 | 0.32 | 0.32 | 95 | 1016.8 |
| 20260902224325 | 76 | 63 | 0.0 | 0.0 | 0.00 | 0.32 | 0.32 | 95 | 1016.8 |
| 20260902224218 | 76 | 63 | 0.0 | 0.0 | 0.00 | 0.32 | 0.32 | 95 | 1016.8 |
| 20260902223855 | 76 | 63 | 0.0 | 0.0 | 0.00 | 0.32 | 0.32 | 96 | 1016.7 |
| 20260902223747 | 76 | 63 | 0.0 | 0.0 | 0.00 | 0.32 | 0.32 | 96 | 1016.7 |
| 20260902223641 | 76 | 63 | 0.0 | 0.0 | 0.00 | 0.32 | 0.32 | 96 | 1016.6 |
| 20260902223313 | 76 | 63 | 0.0 | 0.0 | 0.00 | 0.32 | 0.32 | 96 | 1016.5 |
| 20260902223208 | 76 | 63 | 0.0 | 0.0 | 0.00 | 0.32 | 0.32 | 96 | 1016.5 |
| 20260902223102 | 76 | 63 | 0.0 | 0.0 | 0.00 | 0.32 | 0.32 | 96 | 1016.5 |
| 20260902222955 | 76 | 63 | 0.0 | 0.0 | 0.00 | 0.32 | 0.32 | 96 | 1016.6 |
| 20260902222848 | 76 | 63 | 0.0 | 0.0 | 0.00 | 0.32 | 0.32 | 96 | 1016.5 |
| 20260902222745 | 76 | 63 | 0.0 | 0.0 | 0.00 | 0.32 | 0.32 | 96 | 1016.6 |
| 20260902222639 | 76 | 63 | 0.0 | 0.0 | 0.00 | 0.32 | 0.32 | 96 | 1016.6 |
| 20260902222537 | 76 | 63 | 0.0 | 0.0 | 0.00 | 0.32 | 0.32 | 96 | 1016.6 |
| 20260902222208 | 76 | 63 | 0.0 | 0.0 | 0.00 | 0.32 | 0.32 | 96 | 1016.5 |
| 20260902222101 | 76 | 63 | 0.0 | 0.0 | 0.00 | 0.32 | 0.32 | 96 | 1016.5 |
| 20260902221957 | 76 | 63 | 0.0 | 0.0 | 0.00 | 0.32 | 0.32 | 96 | 1016.4 |
| 20260902221851 | 76 | 63 | 0.0 | 0.0 | 0.00 | 0.32 | 0.32 | 96 | 1016.3 |
| 20260902221522 | 76 | 63 | 0.0 | 0.0 | 0.00 | 0.32 | 0.32 | 96 | 1016.2 |
| 20260902221418 | 76 | 63 | 0.0 | 0.0 | 0.00 | 0.32 | 0.32 | 96 | 1016.2 |
| 20260902221314 | 76 | 63 | 0.0 | 0.0 | 0.00 | 0.32 | 0.32 | 96 | 1016.2 |
| 20260902221212 | 76 | 63 | 0.0 | 0.0 | 0.00 | 0.32 | 0.32 | 96 | 1016.1 |
| 20260902221109 | 76 | 63 | 0.0 | 1.0 | 0.00 | 0.32 | 0.32 | 96 | 1016.1 |
| 20260902221005 | 76 | 63 | 0.0 | 1.0 | 0.00 | 0.32 | 0.32 | 96 | 1016.2 |
| 20260902220858 | 76 | 63 | 0.0 | 1.0 | 0.00 | 0.32 | 0.32 | 96 | 1016.3 |
| 20260902220755 | 76 | 63 | 0.0 | 0.0 | 0.00 | 0.32 | 0.32 | 96 | 1016.3 |
| 20260902220651 | 76 | 63 | 0.0 | 0.0 | 0.00 | 0.32 | 0.32 | 96 | 1016.3 |
| 20260902220544 | 76 | 63 | 0.0 | 0.0 | 0.00 | 0.32 | 0.32 | 96 | 1016.3 |
| 20260902220440 | 76 | 63 | 0.0 | 0.0 | 0.00 | 0.32 | 0.32 | 96 | 1016.3 |
| 20260902220333 | 76 | 63 | 0.0 | 0.0 | 0.00 | 0.32 | 0.32 | 96 | 1016.4 |
| 20260902220227 | 76 | 63 | 0.0 | 1.0 | 0.00 | 0.32 | 0.32 | 96 | 1016.4 |
| 20260902220121 | 76 | 63 | 0.0 | 1.0 | 0.00 | 0.32 | 0.32 | 96 | 1016.4 |
| 20260902220017 | 76 | 63 | 0.0 | 1.0 | 0.00 | 0.32 | 0.32 | 96 | 1016.4 |
| 20260902215911 | 76 | 120 | 0.0 | 0.0 | 0.00 | 0.32 | 0.32 | 96 | 1016.4 |
| 20260902215807 | 76 | 117 | 0.0 | 0.0 | 0.00 | 0.32 | 0.32 | 96 | 1016.3 |
| 20260902215443 | 76 | 98 | 0.0 | 0.0 | 0.00 | 0.32 | 0.32 | 96 | 1016.3 |
| 20260902215341 | 76 | 122 | 0.0 | 0.0 | 0.00 | 0.32 | 0.32 | 96 | 1016.3 |
| 20260902215238 | 76 | 122 | 0.0 | 0.0 | 0.00 | 0.32 | 0.32 | 96 | 1016.3 |
| 20260902215136 | 76 | 122 | 0.0 | 0.0 | 0.00 | 0.32 | 0.32 | 96 | 1016.4 |
| 20260902215030 | 76 | 122 | 0.0 | 0.0 | 0.00 | 0.32 | 0.32 | 96 | 1016.4 |
| 20260902214927 | 76 | 62 | 0.0 | 0.0 | 0.00 | 0.32 | 0.32 | 96 | 1016.4 |
| 20260902214820 | 76 | 62 | 0.0 | 0.0 | 0.00 | 0.32 | 0.32 | 96 | 1016.5 |
| 20260902214718 | 76 | 62 | 0.0 | 0.0 | 0.00 | 0.32 | 0.32 | 96 | 1016.6 |
| 20260902214611 | 76 | 62 | 0.0 | 1.0 | 0.00 | 0.32 | 0.32 | 96 | 1016.7 |
| 20260902214023 | 76 | 62 | 0.0 | 0.0 | 0.00 | 0.32 | 0.32 | 95 | 1016.5 |
| 20260902213704 | 76 | 62 | 0.0 | 0.0 | 0.00 | 0.32 | 0.32 | 95 | 1016.6 |
| 20260902213557 | 76 | 62 | 0.0 | 0.0 | 0.00 | 0.32 | 0.32 | 95 | 1016.7 |
| 20260902213453 | 76 | 62 | 0.0 | 0.0 | 0.00 | 0.32 | 0.32 | 95 | 1016.7 |
| 20260902213348 | 76 | 62 | 0.0 | 0.0 | 0.00 | 0.32 | 0.32 | 95 | 1016.7 |
| 20260902213246 | 76 | 62 | 0.0 | 0.0 | 0.00 | 0.32 | 0.32 | 95 | 1016.7 |
| 20260902213140 | 76 | 62 | 0.0 | 0.0 | 0.00 | 0.32 | 0.32 | 95 | 1016.7 |
| 20260902213032 | 75 | 62 | 0.0 | 0.0 | 0.00 | 0.32 | 0.32 | 95 | 1016.7 |
| 20260902212929 | 76 | 62 | 0.0 | 0.0 | 0.00 | 0.32 | 0.32 | 95 | 1016.8 |
| 20260902212825 | 76 | 62 | 0.0 | 0.0 | 0.00 | 0.32 | 0.32 | 95 | 1016.8 |
| 20260902212722 | 76 | 62 | 0.0 | 0.0 | 0.00 | 0.32 | 0.32 | 95 | 1016.8 |
| 20260902212614 | 75 | 62 | 0.0 | 0.0 | 0.00 | 0.32 | 0.32 | 95 | 1016.8 |
| 20260902212507 | 75 | 137 | 0.0 | 0.0 | 0.00 | 0.32 | 0.32 | 95 | 1016.8 |
| 20260902212403 | 75 | 137 | 0.0 | 0.0 | 0.00 | 0.32 | 0.32 | 95 | 1016.8 |
| 20260902212257 | 75 | 137 | 0.0 | 0.0 | 0.00 | 0.32 | 0.32 | 95 | 1016.8 |
| 20260902212152 | 75 | 137 | 0.0 | 0.0 | 0.00 | 0.32 | 0.32 | 95 | 1016.8 |
| 20260902212046 | 75 | 137 | 0.0 | 0.0 | 0.00 | 0.32 | 0.32 | 95 | 1016.8 |
| 20260902211942 | 75 | 137 | 0.0 | 0.0 | 0.00 | 0.32 | 0.32 | 95 | 1016.8 |
| 20260902211837 | 75 | 137 | 0.0 | 0.0 | 0.00 | 0.32 | 0.32 | 95 | 1016.9 |
| 20260902211731 | 75 | 137 | 0.0 | 0.0 | 0.00 | 0.32 | 0.32 | 95 | 1016.9 |
| 20260902211628 | 75 | 137 | 0.0 | 0.0 | 0.00 | 0.32 | 0.32 | 95 | 1016.9 |
| 20260902211524 | 75 | 137 | 0.0 | 0.0 | 0.00 | 0.32 | 0.32 | 95 | 1016.9 |
| 20260902211417 | 75 | 137 | 0.0 | 0.0 | 0.00 | 0.32 | 0.32 | 95 | 1017.0 |
| 20260902211315 | 75 | 137 | 0.0 | 0.0 | 0.00 | 0.32 | 0.32 | 95 | 1017.0 |
| 20260902211211 | 75 | 137 | 0.0 | 1.0 | 0.00 | 0.32 | 0.32 | 95 | 1017.0 |
| 20260902211104 | 75 | 137 | 0.0 | 1.0 | 0.00 | 0.32 | 0.32 | 95 | 1017.0 |
| 20260902211001 | 75 | 137 | 0.0 | 1.0 | 0.00 | 0.32 | 0.32 | 95 | 1016.9 |
| 20260902210856 | 75 | 85 | 0.0 | 1.0 | 0.00 | 0.32 | 0.32 | 95 | 1016.9 |
| 20260902210535 | 75 | 144 | 0.0 | 1.0 | 0.00 | 0.32 | 0.32 | 95 | 1017.0 |
| 20260902210429 | 75 | 144 | 0.0 | 1.0 | 0.00 | 0.32 | 0.32 | 95 | 1017.0 |
| 20260902210324 | 75 | 144 | 0.0 | 1.0 | 0.00 | 0.32 | 0.32 | 95 | 1016.9 |
| 20260902210222 | 75 | 144 | 0.0 | 0.0 | 0.00 | 0.32 | 0.32 | 95 | 1016.9 |
| 20260902210113 | 75 | 53 | 0.0 | 0.0 | 0.00 | 0.32 | 0.32 | 95 | 1016.9 |
| 20260902210007 | 75 | 53 | 0.0 | 0.0 | 0.00 | 0.32 | 0.32 | 95 | 1016.9 |
| 20260902205638 | 75 | 53 | 0.0 | 0.0 | 0.00 | 0.32 | 0.32 | 95 | 1016.8 |
| 20260902205533 | 75 | 53 | 0.0 | 0.0 | 0.00 | 0.32 | 0.32 | 95 | 1016.7 |
| 20260902205427 | 75 | 53 | 0.0 | 0.0 | 0.00 | 0.32 | 0.32 | 95 | 1016.7 |
| 20260902205103 | 75 | 53 | 0.0 | 1.0 | 0.00 | 0.32 | 0.32 | 95 | 1016.6 |
| 20260902204956 | 75 | 53 | 0.0 | 1.0 | 0.00 | 0.32 | 0.32 | 95 | 1016.6 |
| 20260902204851 | 75 | 53 | 0.0 | 1.0 | 0.00 | 0.32 | 0.32 | 95 | 1016.7 |
| 20260902204748 | 75 | 53 | 0.0 | 1.0 | 0.00 | 0.32 | 0.32 | 95 | 1016.7 |
| 20260902204646 | 75 | 53 | 0.0 | 1.0 | 0.00 | 0.32 | 0.32 | 95 | 1016.7 |
| 20260902204540 | 75 | 53 | 0.0 | 0.0 | 0.00 | 0.32 | 0.32 | 95 | 1016.7 |
| 20260902204433 | 75 | 53 | 0.0 | 0.0 | 0.00 | 0.32 | 0.32 | 95 | 1016.7 |
| 20260902204106 | 75 | 53 | 0.0 | 0.0 | 0.00 | 0.32 | 0.32 | 95 | 1016.8 |
| 20260902204001 | 75 | 53 | 0.0 | 0.0 | 0.00 | 0.32 | 0.32 | 95 | 1016.7 |
| 20260902203857 | 75 | 53 | 0.0 | 0.0 | 0.00 | 0.32 | 0.32 | 95 | 1016.8 |
| 20260902203529 | 75 | 53 | 0.0 | 0.0 | 0.00 | 0.32 | 0.32 | 95 | 1016.7 |
| 20260902203426 | 75 | 53 | 0.0 | 0.0 | 0.00 | 0.32 | 0.32 | 95 | 1016.7 |
| 20260902203322 | 75 | 53 | 0.0 | 0.0 | 0.00 | 0.32 | 0.32 | 95 | 1016.7 |
| 20260902203215 | 75 | 53 | 0.0 | 1.0 | 0.00 | 0.32 | 0.32 | 95 | 1016.6 |
| 20260902203111 | 75 | 53 | 0.0 | 1.0 | 0.00 | 0.32 | 0.32 | 95 | 1016.6 |
| 20260902203008 | 75 | 53 | 0.0 | 1.0 | 0.00 | 0.32 | 0.32 | 95 | 1016.5 |
| 20260902202425 | 75 | 53 | 0.0 | 0.0 | 0.00 | 0.31 | 0.31 | 95 | 1016.2 |
| 20260902202321 | 75 | 53 | 0.0 | 0.0 | 0.00 | 0.31 | 0.31 | 95 | 1016.2 |
| 20260902202217 | 75 | 53 | 0.0 | 0.0 | 0.00 | 0.31 | 0.31 | 95 | 1016.3 |
| 20260902202115 | 75 | 53 | 0.0 | 0.0 | 0.00 | 0.31 | 0.31 | 95 | 1016.3 |
| 20260902202012 | 75 | 53 | 0.0 | 0.0 | 0.00 | 0.31 | 0.31 | 95 | 1016.3 |
| 20260902201905 | 75 | 53 | 0.0 | 0.0 | 0.00 | 0.31 | 0.31 | 95 | 1016.4 |
| 20260902201803 | 75 | 131 | 0.0 | 0.0 | 0.00 | 0.31 | 0.31 | 95 | 1016.5 |
| 20260902201656 | 75 | 131 | 0.0 | 0.0 | 0.00 | 0.31 | 0.31 | 95 | 1016.6 |
| 20260902201551 | 75 | 131 | 0.0 | 0.0 | 0.00 | 0.31 | 0.31 | 95 | 1016.6 |
| 20260902201225 | 75 | 131 | 0.0 | 0.0 | 0.00 | 0.31 | 0.31 | 95 | 1016.8 |
| 20260902201122 | 75 | 131 | 0.0 | 0.0 | 0.00 | 0.31 | 0.31 | 95 | 1016.8 |
| 20260902201020 | 75 | 131 | 0.0 | 1.0 | 0.00 | 0.31 | 0.31 | 95 | 1016.9 |
| 20260902200917 | 75 | 131 | 0.0 | 1.0 | 0.00 | 0.31 | 0.31 | 95 | 1017.0 |
| 20260902200558 | 75 | 67 | 0.0 | 1.0 | 0.00 | 0.31 | 0.31 | 95 | 1017.0 |
| 20260902200237 | 75 | 67 | 0.0 | 2.0 | 0.00 | 0.31 | 0.31 | 95 | 1016.9 |
| 20260902200131 | 75 | 67 | 0.0 | 2.0 | 0.00 | 0.31 | 0.31 | 95 | 1016.9 |
| 20260902200024 | 75 | 67 | 1.0 | 2.0 | 0.00 | 0.31 | 0.31 | 95 | 1016.9 |
| 20260902195701 | 75 | 99 | 1.0 | 2.0 | 0.00 | 0.31 | 0.31 | 95 | 1017.3 |
| 20260902195554 | 75 | 246 | 1.0 | 2.0 | 0.00 | 0.31 | 0.31 | 95 | 1017.4 |
| 20260902195448 | 75 | 246 | 1.0 | 2.0 | 0.00 | 0.31 | 0.31 | 95 | 1017.5 |
| 20260902195346 | 75 | 254 | 1.0 | 2.0 | 0.00 | 0.31 | 0.31 | 95 | 1017.5 |
| 20260902195242 | 76 | 226 | 1.0 | 2.0 | 0.00 | 0.31 | 0.31 | 95 | 1017.4 |
| 20260902194916 | 76 | 218 | 0.0 | 2.0 | 0.00 | 0.31 | 0.31 | 95 | 1017.3 |
| 20260902194809 | 76 | 184 | 0.0 | 2.0 | 0.00 | 0.31 | 0.31 | 95 | 1017.1 |
| 20260902194702 | 76 | 144 | 0.0 | 2.0 | 0.00 | 0.31 | 0.31 | 95 | 1017.1 |
| 20260902194556 | 76 | 111 | 0.0 | 2.0 | 0.00 | 0.31 | 0.31 | 95 | 1017.2 |
| 20260902194450 | 76 | 41 | 0.0 | 2.0 | 0.00 | 0.31 | 0.31 | 95 | 1017.2 |
| 20260902194344 | 76 | 41 | 0.0 | 2.0 | 0.00 | 0.31 | 0.31 | 95 | 1017.3 |
| 20260902194239 | 76 | 103 | 0.0 | 2.0 | 0.04 | 0.31 | 0.31 | 95 | 1017.3 |
| 20260902193911 | 76 | 131 | 0.0 | 2.0 | 0.05 | 0.31 | 0.31 | 95 | 1017.5 |
| 20260902193805 | 76 | 94 | 0.0 | 2.0 | 0.05 | 0.31 | 0.31 | 95 | 1017.8 |
| 20260902193658 | 76 | 240 | 0.0 | 2.0 | 0.05 | 0.31 | 0.31 | 95 | 1017.8 |
| 20260902193552 | 76 | 212 | 0.0 | 2.0 | 0.06 | 0.31 | 0.31 | 95 | 1017.8 |
| 20260902193450 | 76 | 212 | 0.0 | 2.0 | 0.06 | 0.31 | 0.31 | 95 | 1017.7 |
| 20260902193124 | 75 | 290 | 0.0 | 0.0 | 0.06 | 0.31 | 0.31 | 95 | 1017.4 |
| 20260902193018 | 75 | 290 | 0.0 | 0.0 | 0.06 | 0.31 | 0.31 | 95 | 1017.4 |
| 20260902192914 | 76 | 290 | 0.0 | 1.0 | 0.06 | 0.31 | 0.31 | 95 | 1017.4 |
| 20260902192811 | 75 | 290 | 0.0 | 1.0 | 0.06 | 0.31 | 0.31 | 95 | 1017.4 |
| 20260902192707 | 76 | 290 | 0.0 | 1.0 | 0.06 | 0.29 | 0.31 | 95 | 1017.4 |
| 20260902192600 | 76 | 290 | 0.0 | 1.0 | 0.06 | 0.29 | 0.30 | 95 | 1017.3 |
| 20260902192453 | 76 | 219 | 0.0 | 1.0 | 0.08 | 0.29 | 0.30 | 95 | 1017.3 |
| 20260902192349 | 76 | 203 | 0.0 | 1.0 | 0.09 | 0.29 | 0.30 | 95 | 1017.3 |
| 20260902191805 | 76 | 199 | 0.0 | 1.0 | 0.09 | 0.29 | 0.30 | 95 | 1017.2 |
| 20260902191700 | 76 | 199 | 0.0 | 2.0 | 0.04 | 0.29 | 0.28 | 95 | 1017.2 |
| 20260902191333 | 76 | 192 | 0.0 | 2.0 | 0.04 | 0.29 | 0.28 | 95 | 1017.3 |
| 20260902191230 | 76 | 208 | 0.0 | 2.0 | 0.04 | 0.27 | 0.28 | 94 | 1017.5 |
| 20260902191127 | 76 | 239 | 0.0 | 2.0 | 0.04 | 0.27 | 0.28 | 94 | 1017.5 |
| 20260902191020 | 76 | 239 | 0.0 | 2.0 | 0.04 | 0.27 | 0.27 | 94 | 1017.6 |
| 20260902190654 | 76 | 287 | 0.0 | 6.0 | 0.05 | 0.27 | 0.27 | 94 | 1017.5 |
| 20260902190327 | 76 | 287 | 0.0 | 6.0 | 0.06 | 0.27 | 0.27 | 94 | 1017.7 |
| 20260902190220 | 76 | 287 | 0.0 | 6.0 | 0.06 | 0.27 | 0.27 | 93 | 1017.7 |
| 20260902190118 | 76 | 287 | 0.0 | 6.0 | 0.08 | 0.27 | 0.27 | 93 | 1017.6 |
| 20260902190015 | 76 | 253 | 0.0 | 6.0 | 0.10 | 0.27 | 0.27 | 93 | 1017.5 |
| 20260902185910 | 76 | 334 | 0.0 | 6.0 | 0.12 | 0.27 | 0.27 | 93 | 1017.5 |
| 20260902185807 | 76 | 307 | 0.0 | 6.0 | 0.15 | 0.27 | 0.27 | 92 | 1017.4 |
| 20260902185700 | 76 | 280 | 1.0 | 6.0 | 0.21 | 0.27 | 0.27 | 92 | 1017.3 |
| 20260902185556 | 76 | 221 | 1.0 | 6.0 | 0.31 | 0.27 | 0.27 | 90 | 1017.1 |
| 20260902185452 | 77 | 221 | 1.0 | 6.0 | 0.31 | 0.26 | 0.27 | 90 | 1016.9 |
| 20260902185348 | 77 | 255 | 1.0 | 6.0 | 0.35 | 0.26 | 0.27 | 89 | 1016.9 |
| 20260902185245 | 77 | 13 | 1.0 | 6.0 | 0.35 | 0.26 | 0.27 | 89 | 1016.9 |
| 20260902185138 | 77 | 30 | 1.0 | 6.0 | 0.49 | 0.24 | 0.26 | 88 | 1016.9 |
| 20260902185031 | 78 | 168 | 2.0 | 6.0 | 0.66 | 0.21 | 0.25 | 88 | 1016.9 |
| 20260902184925 | 79 | 120 | 1.0 | 6.0 | 1.66 | 0.19 | 0.24 | 87 | 1017.0 |
| 20260902184821 | 79 | 51 | 1.0 | 6.0 | 1.93 | 0.14 | 0.21 | 86 | 1016.9 |
| 20260902184717 | 80 | 288 | 1.0 | 4.0 | 1.82 | 0.10 | 0.19 | 85 | 1016.8 |
| 20260902184611 | 80 | 332 | 1.0 | 4.0 | 2.88 | 0.08 | 0.15 | 86 | 1016.9 |
| 20260902184504 | 81 | 46 | 1.0 | 4.0 | 1.84 | 0.06 | 0.10 | 86 | 1016.8 |
| 20260902184358 | 81 | 103 | 0.0 | 3.0 | 2.11 | 0.03 | 0.06 | 86 | 1016.7 |
| 20260902184252 | 82 | 0 | 0.0 | 3.0 | 1.30 | 0.02 | 0.04 | 86 | 1016.8 |
| 20260902184145 | 82 | 315 | 0.0 | 3.0 | 0.08 | 0.02 | 0.02 | 87 | 1016.7 |
| 20260902184042 | 82 | 32 | 0.0 | 2.0 | 0.08 | 0.01 | 0.02 | 87 | 1016.6 |
| 20260902183936 | 83 | 5 | 0.0 | 2.0 | 0.00 | 0.01 | 0.01 | 84 | 1016.6 |
| 20260902183829 | 83 | 0 | 0.0 | 2.0 | 0.00 | 0.01 | 0.01 | 82 | 1016.5 |
| 20260902183727 | 83 | 195 | 0.0 | 2.0 | 0.00 | 0.01 | 0.01 | 86 | 1016.6 |
| 20260902183625 | 83 | 107 | 0.0 | 1.0 | 0.00 | 0.01 | 0.01 | 84 | 1016.6 |
| 20260902183519 | 83 | 31 | 0.0 | 1.0 | 0.00 | 0.01 | 0.01 | 83 | 1016.6 |
| 20260902183414 | 84 | 31 | 0.0 | 1.0 | 0.00 | 0.00 | 0.01 | 82 | 1016.6 |
| 20260902183047 | 85 | 103 | 0.0 | 1.0 | 0.00 | 0.00 | 0.00 | 78 | 1016.6 |
| 20260902182717 | 87 | 117 | 0.0 | 2.0 | 0.00 | 0.00 | 0.00 | 72 | 1016.5 |
| 20260902182614 | 88 | 136 | 0.0 | 2.0 | 0.00 | 0.00 | 0.00 | 73 | 1016.5 |
| 20260902182510 | 88 | 136 | 0.0 | 2.0 | 0.00 | 0.00 | 0.00 | 69 | 1016.4 |
| 20260902182406 | 89 | 136 | 0.0 | 2.0 | 0.00 | 0.00 | 0.00 | 68 | 1016.4 |
| 20260902182300 | 89 | 136 | 0.0 | 2.0 | 0.00 | 0.00 | 0.00 | 71 | 1016.4 |
| 20260902182154 | 89 | 145 | 0.0 | 2.0 | 0.00 | 0.00 | 0.00 | 69 | 1016.3 |
| 20260902182050 | 89 | 145 | 0.0 | 2.0 | 0.00 | 0.00 | 0.00 | 67 | 1016.3 |
| 20260902181942 | 89 | 155 | 0.0 | 2.0 | 0.00 | 0.00 | 0.00 | 67 | 1016.3 |
| 20260902181836 | 90 | 195 | 0.0 | 2.0 | 0.00 | 0.00 | 0.00 | 68 | 1016.4 |
| 20260902181734 | 90 | 157 | 0.0 | 2.0 | 0.00 | 0.00 | 0.00 | 66 | 1016.3 |
| 20260902181632 | 90 | 69 | 0.0 | 2.0 | 0.00 | 0.00 | 0.00 | 65 | 1016.3 |
| 20260902181528 | 90 | 205 | 0.0 | 2.0 | 0.00 | 0.00 | 0.00 | 65 | 1016.3 |
| 20260902181426 | 90 | 71 | 0.0 | 2.0 | 0.00 | 0.00 | 0.00 | 66 | 1016.3 |
| 20260902181101 | 90 | 42 | 0.0 | 2.0 | 0.00 | 0.00 | 0.00 | 67 | 1016.3 |
| 20260902180957 | 91 | 31 | 0.0 | 2.0 | 0.00 | 0.00 | 0.00 | 66 | 1016.3 |
| 20260902180635 | 91 | 19 | 0.0 | 2.0 | 0.00 | 0.00 | 0.00 | 65 | 1016.3 |
| 20260902180531 | 91 | 90 | 0.0 | 2.0 | 0.00 | 0.00 | 0.00 | 65 | 1016.3 |
| 20260902180424 | 91 | 26 | 0.0 | 2.0 | 0.00 | 0.00 | 0.00 | 64 | 1016.3 |
| 20260902175837 | 92 | 59 | 0.0 | 2.0 | 0.00 | 0.00 | 0.00 | 64 | 1016.3 |
| 20260902175255 | 92 | 22 | 0.0 | 2.0 | 0.00 | 0.00 | 0.00 | 64 | 1016.5 |
| 20260902175149 | 92 | 313 | 0.0 | 2.0 | 0.00 | 0.00 | 0.00 | 63 | 1016.6 |
| 20260902175044 | 92 | 185 | 0.0 | 2.0 | 0.00 | 0.00 | 0.00 | 63 | 1016.6 |
| 20260902174939 | 92 | 220 | 0.0 | 2.0 | 0.00 | 0.00 | 0.00 | 61 | 1016.5 |
| 20260902174832 | 92 | 75 | 0.0 | 2.0 | 0.00 | 0.00 | 0.00 | 61 | 1016.5 |
| 20260902174726 | 92 | 60 | 0.0 | 2.0 | 0.00 | 0.00 | 0.00 | 65 | 1016.6 |
| 20260902174618 | 92 | 28 | 0.0 | 2.0 | 0.00 | 0.00 | 0.00 | 63 | 1016.6 |
| 20260902174512 | 92 | 5 | 0.0 | 2.0 | 0.00 | 0.00 | 0.00 | 64 | 1016.6 |
| 20260902174408 | 91 | 63 | 0.0 | 2.0 | 0.00 | 0.00 | 0.00 | 63 | 1016.6 |
| 20260902174303 | 91 | 69 | 0.0 | 2.0 | 0.00 | 0.00 | 0.00 | 63 | 1016.7 |
| 20260902174200 | 91 | 229 | 0.0 | 2.0 | 0.00 | 0.00 | 0.00 | 64 | 1016.7 |
| 20260902174055 | 91 | 229 | 0.0 | 2.0 | 0.00 | 0.00 | 0.00 | 62 | 1016.7 |
| 20260902173252 | 91 | 40 | 0.0 | 2.0 | 0.00 | 0.00 | 0.00 | 63 | 1016.8 |
| 20260902173148 | 91 | 5 | 0.0 | 2.0 | 0.00 | 0.00 | 0.00 | 62 | 1016.8 |
| 20260902173042 | 91 | 30 | 0.0 | 2.0 | 0.00 | 0.00 | 0.00 | 64 | 1016.8 |
| 20260902172939 | 91 | 94 | 0.0 | 1.0 | 0.00 | 0.00 | 0.00 | 65 | 1016.8 |
| 20260902172832 | 91 | 210 | 0.0 | 2.0 | 0.00 | 0.00 | 0.00 | 66 | 1016.8 |
| 20260902172729 | 91 | 55 | 0.0 | 2.0 | 0.00 | 0.00 | 0.00 | 64 | 1016.8 |
| 20260902172404 | 91 | 105 | 0.0 | 2.0 | 0.00 | 0.00 | 0.00 | 61 | 1016.8 |
| 20260902172259 | 91 | 105 | 0.0 | 2.0 | 0.00 | 0.00 | 0.00 | 63 | 1016.8 |
| 20260902172153 | 91 | 105 | 0.0 | 2.0 | 0.00 | 0.00 | 0.00 | 63 | 1016.8 |
| 20260902172049 | 91 | 111 | 0.0 | 2.0 | 0.00 | 0.00 | 0.00 | 65 | 1016.8 |
| 20260902171946 | 90 | 259 | 0.0 | 2.0 | 0.00 | 0.00 | 0.00 | 64 | 1016.8 |
| 20260902171838 | 90 | 335 | 0.0 | 2.0 | 0.00 | 0.00 | 0.00 | 65 | 1016.9 |
| 20260902171731 | 90 | 355 | 0.0 | 2.0 | 0.00 | 0.00 | 0.00 | 65 | 1016.9 |
| 20260902171623 | 91 | 355 | 0.0 | 2.0 | 0.00 | 0.00 | 0.00 | 65 | 1016.8 |
| 20260902171518 | 91 | 72 | 0.0 | 2.0 | 0.00 | 0.00 | 0.00 | 65 | 1016.9 |
| 20260902171412 | 91 | 72 | 0.0 | 2.0 | 0.00 | 0.00 | 0.00 | 63 | 1016.9 |
| 20260902171046 | 91 | 160 | 0.0 | 2.0 | 0.00 | 0.00 | 0.00 | 64 | 1016.9 |
| 20260902170939 | 91 | 160 | 0.0 | 2.0 | 0.00 | 0.00 | 0.00 | 65 | 1017.0 |
| 20260902170834 | 91 | 132 | 0.0 | 1.0 | 0.00 | 0.00 | 0.00 | 64 | 1017.0 |
| 20260902170729 | 91 | 91 | 0.0 | 1.0 | 0.00 | 0.00 | 0.00 | 64 | 1017.0 |
| 20260902170627 | 91 | 91 | 0.0 | 1.0 | 0.00 | 0.00 | 0.00 | 63 | 1017.0 |
| 20260902170521 | 91 | 161 | 0.0 | 1.0 | 0.00 | 0.00 | 0.00 | 63 | 1017.0 |
| 20260902170419 | 91 | 209 | 0.0 | 1.0 | 0.00 | 0.00 | 0.00 | 63 | 1017.0 |
| 20260902170313 | 91 | 169 | 0.0 | 1.0 | 0.00 | 0.00 | 0.00 | 64 | 1017.0 |
| 20260902165947 | 91 | 130 | 0.0 | 2.0 | 0.00 | 0.00 | 0.00 | 67 | 1017.0 |
| 20260902165842 | 90 | 78 | 0.0 | 2.0 | 0.00 | 0.00 | 0.00 | 67 | 1017.0 |
| 20260902165739 | 90 | 112 | 0.0 | 2.0 | 0.00 | 0.00 | 0.00 | 66 | 1017.0 |
| 20260902165635 | 90 | 112 | 0.0 | 2.0 | 0.00 | 0.00 | 0.00 | 65 | 1017.0 |
| 20260902165527 | 90 | 250 | 0.0 | 2.0 | 0.00 | 0.00 | 0.00 | 64 | 1017.0 |
| 20260902165423 | 90 | 176 | 0.0 | 2.0 | 0.00 | 0.00 | 0.00 | 64 | 1017.1 |
| 20260902165316 | 90 | 291 | 0.0 | 2.0 | 0.00 | 0.00 | 0.00 | 64 | 1017.1 |
| 20260902165213 | 90 | 163 | 0.0 | 2.0 | 0.00 | 0.00 | 0.00 | 64 | 1017.1 |
| 20260902165107 | 90 | 170 | 0.0 | 2.0 | 0.00 | 0.00 | 0.00 | 64 | 1017.2 |
| 20260902165004 | 90 | 346 | 0.0 | 2.0 | 0.00 | 0.00 | 0.00 | 62 | 1017.1 |
| 20260902164858 | 91 | 214 | 0.0 | 2.0 | 0.00 | 0.00 | 0.00 | 61 | 1017.1 |
| 20260902164754 | 91 | 190 | 0.0 | 2.0 | 0.00 | 0.00 | 0.00 | 64 | 1017.1 |
| 20260902164428 | 91 | 146 | 0.0 | 2.0 | 0.00 | 0.00 | 0.00 | 61 | 1017.1 |
| 20260902164323 | 91 | 146 | 0.0 | 2.0 | 0.00 | 0.00 | 0.00 | 60 | 1017.2 |
| 20260902164002 | 90 | 338 | 0.0 | 1.0 | 0.00 | 0.00 | 0.00 | 66 | 1017.2 |
| 20260902163858 | 90 | 337 | 0.0 | 1.0 | 0.00 | 0.00 | 0.00 | 64 | 1017.1 |
| 20260902163533 | 90 | 351 | 0.0 | 1.0 | 0.00 | 0.00 | 0.00 | 65 | 1017.1 |
| 20260902163430 | 90 | 69 | 0.0 | 2.0 | 0.00 | 0.00 | 0.00 | 65 | 1017.1 |
| 20260902163325 | 89 | 227 | 0.0 | 2.0 | 0.00 | 0.00 | 0.00 | 64 | 1017.1 |
| 20260902163218 | 89 | 227 | 0.0 | 2.0 | 0.00 | 0.00 | 0.00 | 66 | 1017.1 |
| 20260902162856 | 89 | 313 | 0.0 | 2.0 | 0.00 | 0.00 | 0.00 | 65 | 1017.1 |
| 20260902162753 | 89 | 338 | 0.0 | 2.0 | 0.00 | 0.00 | 0.00 | 66 | 1017.1 |
| 20260902162434 | 90 | 122 | 0.0 | 2.0 | 0.00 | 0.00 | 0.00 | 63 | 1017.0 |
| 20260902162329 | 89 | 122 | 0.0 | 2.0 | 0.00 | 0.00 | 0.00 | 64 | 1017.0 |
| 20260902162224 | 89 | 122 | 0.0 | 2.0 | 0.00 | 0.00 | 0.00 | 63 | 1017.0 |
| 20260902162121 | 89 | 122 | 0.0 | 2.0 | 0.00 | 0.00 | 0.00 | 62 | 1017.0 |
| 20260902162017 | 89 | 109 | 0.0 | 2.0 | 0.00 | 0.00 | 0.00 | 63 | 1017.0 |
| 20260902161913 | 88 | 111 | 0.0 | 2.0 | 0.00 | 0.00 | 0.00 | 64 | 1017.1 |
| 20260902161805 | 88 | 51 | 0.0 | 2.0 | 0.00 | 0.00 | 0.00 | 64 | 1017.1 |
| 20260902161226 | 88 | 11 | 0.0 | 1.0 | 0.00 | 0.00 | 0.00 | 65 | 1017.1 |
| 20260902161119 | 89 | 261 | 0.0 | 1.0 | 0.00 | 0.00 | 0.00 | 65 | 1017.1 |
| 20260902161014 | 89 | 228 | 0.0 | 1.0 | 0.00 | 0.00 | 0.00 | 67 | 1017.1 |
| 20260902160912 | 89 | 228 | 0.0 | 1.0 | 0.00 | 0.00 | 0.00 | 69 | 1017.1 |
| 20260902160547 | 89 | 201 | 0.0 | 3.0 | 0.00 | 0.00 | 0.00 | 66 | 1017.2 |
| 20260902160445 | 89 | 50 | 0.0 | 3.0 | 0.00 | 0.00 | 0.00 | 65 | 1017.2 |
| 20260902160338 | 88 | 50 | 0.0 | 3.0 | 0.00 | 0.00 | 0.00 | 64 | 1017.2 |
| 20260902160233 | 88 | 296 | 0.0 | 3.0 | 0.00 | 0.00 | 0.00 | 67 | 1017.2 |
| 20260902155912 | 88 | 267 | 0.0 | 3.0 | 0.00 | 0.00 | 0.00 | 66 | 1017.2 |
| 20260902155806 | 88 | 198 | 0.0 | 3.0 | 0.00 | 0.00 | 0.00 | 68 | 1017.2 |
| 20260902155703 | 88 | 188 | 0.0 | 3.0 | 0.00 | 0.00 | 0.00 | 68 | 1017.2 |
| 20260902155558 | 88 | 188 | 0.0 | 3.0 | 0.00 | 0.00 | 0.00 | 66 | 1017.2 |
| 20260902155453 | 88 | 188 | 0.0 | 3.0 | 0.00 | 0.00 | 0.00 | 67 | 1017.2 |
| 20260902155348 | 88 | 182 | 0.0 | 3.0 | 0.00 | 0.00 | 0.00 | 68 | 1017.1 |
| 20260902155244 | 88 | 158 | 0.0 | 3.0 | 0.00 | 0.00 | 0.00 | 70 | 1017.1 |
| 20260902155139 | 88 | 165 | 0.0 | 3.0 | 0.00 | 0.00 | 0.00 | 68 | 1017.1 |
| 20260902155034 | 88 | 150 | 0.0 | 3.0 | 0.00 | 0.00 | 0.00 | 69 | 1017.1 |
| 20260902154929 | 88 | 242 | 0.0 | 3.0 | 0.00 | 0.00 | 0.00 | 68 | 1017.1 |
| 20260902154826 | 88 | 244 | 0.0 | 3.0 | 0.00 | 0.00 | 0.00 | 67 | 1017.1 |
| 20260902154503 | 88 | 252 | 0.0 | 2.0 | 0.00 | 0.00 | 0.00 | 69 | 1017.1 |
| 20260902154358 | 88 | 180 | 0.0 | 2.0 | 0.00 | 0.00 | 0.00 | 69 | 1017.1 |
| 20260902154255 | 88 | 301 | 0.0 | 2.0 | 0.00 | 0.00 | 0.00 | 67 | 1017.1 |